FW7316 Weather Reports


time (UTC)temp
C
wind
direction
speed
KPH
gust
KPH
rain 1hr
cm
rain 24hr
cm
rain mn
cm
humidity
%
barometer
mb
20260906080505 27 323 3.2 9.7 0.00 0.00 0.00 76 1020.1
20260906080405 27 319 9.7 9.7 0.00 0.00 0.00 76 1020.0
20260906080308 27 355 9.7 9.7 0.00 0.00 0.00 75 1020.0
20260906080118 27 344 8.0 9.7 0.00 0.00 0.00 76 1020.0
20260906080012 27 344 6.4 9.7 0.00 0.00 0.00 76 1020.0
20260906075707 27 301 1.6 9.7 0.00 0.00 0.00 77 1020.0
20260906075605 27 294 4.8 9.7 0.00 0.00 0.00 76 1020.0
20260906075505 27 275 3.2 9.7 0.00 0.00 0.00 76 1020.0
20260906075406 27 255 4.8 9.7 0.00 0.00 0.00 75 1020.0
20260906075205 27 288 4.8 9.7 0.00 0.00 0.00 75 1020.0
20260906075108 27 301 1.6 9.7 0.00 0.00 0.00 76 1020.0
20260906075006 27 246 4.8 9.7 0.00 0.00 0.00 76 1020.0
20260906074904 27 263 1.6 9.7 0.00 0.00 0.00 76 1020.0
20260906074807 27 340 4.8 9.7 0.00 0.00 0.00 76 1020.0
20260906074705 26 344 9.7 9.7 0.00 0.00 0.00 76 1020.0
20260906074605 26 15 6.4 9.7 0.00 0.00 0.00 75 1020.0
20260906074508 26 319 4.8 9.7 0.00 0.00 0.00 75 1020.0
20260906074404 26 331 6.4 9.7 0.00 0.00 0.00 74 1020.0
20260906074207 26 288 4.8 9.7 0.00 0.00 0.00 73 1020.0
20260906074105 26 289 8.0 9.7 0.00 0.00 0.00 72 1020.0
20260906074006 26 259 3.2 9.7 0.00 0.00 0.00 72 1020.0
20260906073805 26 274 4.8 9.7 0.00 0.00 0.00 71 1020.0
20260906073705 26 306 1.6 9.7 0.00 0.00 0.00 71 1020.0
20260906073607 26 339 4.8 9.7 0.00 0.00 0.00 71 1020.0
20260906073505 26 318 8.0 9.7 0.00 0.00 0.00 71 1019.9
20260906073404 26 298 3.2 9.7 0.00 0.00 0.00 71 1019.8
20260906073308 26 298 4.8 9.7 0.00 0.00 0.00 71 1019.8
20260906073204 26 326 6.4 9.7 0.00 0.00 0.00 71 1019.9
20260906073012 26 349 8.0 9.7 0.00 0.00 0.00 71 1019.8
20260906072906 26 355 4.8 9.7 0.00 0.00 0.00 71 1019.8
20260906072805 26 325 6.4 11.3 0.00 0.00 0.00 72 1019.8
20260906072708 26 329 4.8 11.3 0.00 0.00 0.00 72 1019.8
20260906072505 26 315 4.8 11.3 0.00 0.00 0.00 72 1019.8
20260906072407 26 329 4.8 11.3 0.00 0.00 0.00 72 1019.8
20260906072205 26 349 4.8 12.9 0.00 0.00 0.00 73 1019.8
20260906072107 26 275 8.0 12.9 0.00 0.00 0.00 73 1019.8
20260906071905 26 322 3.2 12.9 0.00 0.00 0.00 72 1019.8
20260906071807 26 283 8.0 12.9 0.00 0.00 0.00 73 1019.8
20260906071405 26 314 9.7 12.9 0.00 0.00 0.00 71 1019.7
20260906071305 26 322 6.4 12.9 0.00 0.00 0.00 72 1019.7
20260906071207 26 345 12.9 12.9 0.00 0.00 0.00 71 1019.7
20260906071105 26 299 8.0 11.3 0.00 0.00 0.00 71 1019.7
20260906071006 26 328 6.4 11.3 0.00 0.00 0.00 69 1019.7
20260906070907 26 320 6.4 9.7 0.00 0.00 0.00 68 1019.6
20260906070805 26 274 6.4 9.7 0.00 0.00 0.00 69 1019.6
20260906070705 26 335 4.8 9.7 0.00 0.00 0.00 69 1019.6
20260906070608 26 309 6.4 9.7 0.00 0.00 0.00 69 1019.6
20260906070505 26 296 1.6 9.7 0.00 0.00 0.00 68 1019.6
20260906070405 26 276 6.4 9.7 0.00 0.00 0.00 69 1019.5
20260906070307 26 296 6.4 9.7 0.00 0.00 0.00 69 1019.6
20260906070204 26 279 4.8 9.7 0.00 0.00 0.00 69 1019.6
20260906070105 26 314 6.4 9.7 0.00 0.00 0.00 69 1019.6
20260906070013 26 336 4.8 9.7 0.00 0.00 0.00 69 1019.6
20260906065906 26 314 8.0 9.7 0.00 0.00 0.00 69 1019.5
20260906065805 26 279 4.8 9.7 0.00 0.00 0.00 68 1019.5
20260906065707 26 292 4.8 9.7 0.00 0.00 0.00 69 1019.5
20260906065605 26 298 4.8 9.7 0.00 0.00 0.00 69 1019.5
20260906065306 26 321 6.4 6.4 0.00 0.00 0.00 69 1019.4
20260906065205 25 290 1.6 6.4 0.00 0.00 0.00 70 1019.4
20260906064905 25 277 3.2 6.4 0.00 0.00 0.00 68 1019.4
20260906064807 25 288 3.2 6.4 0.00 0.00 0.00 68 1019.5
20260906064705 25 292 3.2 6.4 0.00 0.00 0.00 67 1019.4
20260906064605 25 292 1.6 6.4 0.00 0.00 0.00 67 1019.4
20260906064507 25 263 4.8 6.4 0.00 0.00 0.00 66 1019.5
20260906064405 25 275 4.8 6.4 0.00 0.00 0.00 66 1019.5
20260906064305 25 275 0.0 6.4 0.00 0.00 0.00 67 1019.4
20260906064006 25 260 6.4 6.4 0.00 0.00 0.00 68 1019.5
20260906063907 25 311 1.6 3.2 0.00 0.00 0.00 67 1019.5
20260906063805 25 125 0.0 3.2 0.00 0.00 0.00 68 1019.5
20260906063607 25 36 0.0 4.8 0.00 0.00 0.00 67 1019.4
20260906063506 25 36 0.0 4.8 0.00 0.00 0.00 67 1019.4
20260906063404 24 36 0.0 4.8 0.00 0.00 0.00 67 1019.4
20260906063206 24 36 3.2 4.8 0.00 0.00 0.00 68 1019.4
20260906063105 24 70 0.0 4.8 0.00 0.00 0.00 68 1019.4
20260906063009 24 70 0.0 4.8 0.00 0.00 0.00 68 1019.4
20260906062904 24 70 0.0 4.8 0.00 0.00 0.00 68 1019.4
20260906062805 24 70 0.0 4.8 0.00 0.00 0.00 68 1019.4
20260906062707 24 70 0.0 4.8 0.00 0.00 0.00 68 1019.4
20260906062408 23 71 4.8 4.8 0.00 0.00 0.00 70 1019.4
20260906062204 23 235 3.2 4.8 0.00 0.00 0.00 70 1019.3
20260906062107 23 235 4.8 4.8 0.00 0.00 0.00 71 1019.3
20260906062005 23 235 1.6 3.2 0.00 0.00 0.00 71 1019.2
20260906061905 23 235 1.6 3.2 0.00 0.00 0.00 72 1019.3
20260906061807 22 235 1.6 3.2 0.00 0.00 0.00 72 1019.3
20260906061605 22 235 0.0 3.2 0.00 0.00 0.00 73 1019.3
20260906061508 22 235 0.0 3.2 0.00 0.00 0.00 73 1019.2
20260906061405 22 235 0.0 3.2 0.00 0.00 0.00 73 1019.2
20260906061305 22 235 1.6 3.2 0.00 0.00 0.00 74 1019.2
20260906061207 22 235 1.6 1.6 0.00 0.00 0.00 74 1019.3
20260906061006 22 235 1.6 1.6 0.00 0.00 0.00 75 1019.2
20260906060907 22 235 0.0 1.6 0.00 0.00 0.00 75 1019.2
20260906060607 21 235 1.6 1.6 0.00 0.00 0.00 76 1019.1
20260906060405 21 235 0.0 3.2 0.00 0.00 0.00 76 1019.2
20260906060307 21 235 0.0 3.2 0.00 0.00 0.00 77 1019.2
20260906060205 21 235 0.0 3.2 0.00 0.00 0.00 77 1019.1
20260906055905 21 235 0.0 3.2 0.00 0.00 0.00 78 1019.1
20260906055805 20 235 0.0 3.2 0.00 0.00 0.00 79 1019.1
20260906055707 20 235 0.0 3.2 0.00 0.00 0.00 79 1019.1
20260906055407 20 235 3.2 3.2 0.00 0.00 0.00 81 1019.1
20260906055306 20 235 1.6 3.2 0.00 0.00 0.00 81 1019.1
20260906055107 20 235 0.0 3.2 0.00 0.00 0.00 82 1019.1
20260906054905 20 235 0.0 3.2 0.00 0.00 0.00 83 1019.0
20260906054807 19 235 0.0 3.2 0.00 0.00 0.00 83 1019.1
20260906054705 19 235 0.0 3.2 0.00 0.00 0.00 84 1019.0
20260906054605 19 235 0.0 3.2 0.00 0.00 0.00 85 1019.1
20260906054508 19 235 1.6 3.2 0.00 0.00 0.00 85 1019.1
20260906054405 19 235 1.6 3.2 0.00 0.00 0.00 86 1019.0
20260906054305 19 235 1.6 3.2 0.00 0.00 0.00 86 1019.0
20260906054207 18 235 3.2 3.2 0.00 0.00 0.00 86 1019.0
20260906054105 18 235 1.6 3.2 0.00 0.00 0.00 86 1018.9
20260906054006 18 235 0.0 3.2 0.00 0.00 0.00 86 1018.9
20260906053907 18 235 0.0 3.2 0.00 0.00 0.00 87 1019.0
20260906053805 18 235 0.0 3.2 0.00 0.00 0.00 87 1018.9
20260906053705 18 235 0.0 3.2 0.00 0.00 0.00 87 1018.9
20260906053607 18 235 0.0 3.2 0.00 0.00 0.00 87 1019.0
20260906053504 18 235 1.6 3.2 0.00 0.00 0.00 87 1019.0
20260906053405 18 235 3.2 3.2 0.00 0.00 0.00 87 1019.0
20260906053205 18 235 0.0 3.2 0.00 0.00 0.00 87 1019.0
20260906052905 18 235 0.0 3.2 0.00 0.00 0.00 87 1019.0
20260906052805 18 235 0.0 3.2 0.00 0.00 0.00 87 1018.9
20260906052707 18 235 1.6 3.2 0.00 0.00 0.00 87 1018.9
20260906052506 18 235 0.0 3.2 0.00 0.00 0.00 87 1018.9
20260906052407 18 235 0.0 3.2 0.00 0.00 0.00 87 1018.9
20260906052306 18 235 0.0 3.2 0.00 0.00 0.00 87 1018.8
20260906052204 18 235 0.0 3.2 0.00 0.00 0.00 87 1018.8
20260906052107 17 235 0.0 3.2 0.00 0.00 0.00 87 1018.8
20260906052006 17 235 1.6 3.2 0.00 0.00 0.00 87 1018.8
20260906051904 17 235 1.6 3.2 0.00 0.00 0.00 87 1018.8
20260906051705 17 235 0.0 3.2 0.00 0.00 0.00 87 1018.8
20260906051604 17 235 0.0 3.2 0.00 0.00 0.00 87 1018.8
20260906051508 17 235 3.2 3.2 0.00 0.00 0.00 87 1018.8
20260906051405 17 235 1.6 3.2 0.00 0.00 0.00 87 1018.8
20260906051304 17 235 1.6 3.2 0.00 0.00 0.00 86 1018.8
20260906051105 17 235 1.6 4.8 0.00 0.00 0.00 86 1018.7
20260906051006 17 235 1.6 4.8 0.00 0.00 0.00 86 1018.7
20260906050704 17 235 1.6 4.8 0.00 0.00 0.00 86 1018.7
20260906050607 17 235 3.2 4.8 0.00 0.00 0.00 86 1018.7
20260906050405 17 235 3.2 4.8 0.00 0.00 0.00 86 1018.6
20260906050307 17 235 3.2 4.8 0.00 0.00 0.00 86 1018.6
20260906050205 17 235 3.2 4.8 0.00 0.00 0.00 86 1018.6
20260906050105 17 235 3.2 4.8 0.00 0.00 0.00 86 1018.6
20260906050012 17 235 3.2 3.2 0.00 0.00 0.00 85 1018.6
20260906045905 17 236 0.0 1.6 0.00 0.00 0.00 85 1018.6
20260906045708 17 236 1.6 1.6 0.00 0.00 0.00 85 1018.6
20260906045505 17 236 1.6 1.6 0.00 0.00 0.00 86 1018.6
20260906045408 17 236 0.0 1.6 0.00 0.00 0.00 86 1018.6
20260906045205 17 236 0.0 3.2 0.00 0.00 0.00 85 1018.6
20260906045106 17 236 0.0 3.2 0.00 0.00 0.00 86 1018.5
20260906044807 17 236 0.0 3.2 0.00 0.00 0.00 86 1018.6
20260906044705 17 236 1.6 3.2 0.00 0.00 0.00 86 1018.6
20260906044507 17 236 0.0 3.2 0.00 0.00 0.00 85 1018.6
20260906044405 17 236 0.0 3.2 0.00 0.00 0.00 85 1018.5
20260906044304 17 236 1.6 3.2 0.00 0.00 0.00 85 1018.5
20260906044207 17 236 3.2 3.2 0.00 0.00 0.00 85 1018.5
20260906044105 17 236 0.0 3.2 0.00 0.00 0.00 85 1018.5
20260906044005 17 236 0.0 3.2 0.00 0.00 0.00 85 1018.5
20260906043805 17 236 0.0 4.8 0.00 0.00 0.00 85 1018.5
20260906043705 17 236 1.6 4.8 0.00 0.00 0.00 85 1018.5
20260906043607 17 236 1.6 4.8 0.00 0.00 0.00 85 1018.5
20260906043505 17 236 1.6 4.8 0.00 0.00 0.00 85 1018.4
20260906043405 17 236 1.6 4.8 0.00 0.00 0.00 85 1018.4
20260906043308 17 236 0.0 4.8 0.00 0.00 0.00 85 1018.4
20260906043206 17 236 0.0 4.8 0.00 0.00 0.00 85 1018.4
20260906043105 17 236 0.0 4.8 0.00 0.00 0.00 85 1018.4
20260906043009 17 236 1.6 4.8 0.00 0.00 0.00 85 1018.4
20260906042905 17 236 3.2 4.8 0.00 0.00 0.00 85 1018.3
20260906042806 17 236 3.2 4.8 0.00 0.00 0.00 85 1018.3
20260906042708 17 236 3.2 4.8 0.00 0.00 0.00 85 1018.4
20260906042605 17 236 1.6 4.8 0.00 0.00 0.00 85 1018.4
20260906042505 17 236 1.6 4.8 0.00 0.00 0.00 85 1018.3
20260906042407 17 236 1.6 6.4 0.00 0.00 0.00 85 1018.3
20260906042306 17 236 1.6 6.4 0.00 0.00 0.00 85 1018.3
20260906042106 17 236 4.8 6.4 0.00 0.00 0.00 85 1018.2
20260906041904 17 236 3.2 6.4 0.00 0.00 0.00 85 1018.2
20260906041806 17 236 3.2 6.4 0.00 0.00 0.00 86 1018.3
20260906041604 17 236 1.6 6.4 0.00 0.00 0.00 86 1018.2
20260906041508 17 236 3.2 6.4 0.00 0.00 0.00 86 1018.2
20260906041404 17 236 4.8 6.4 0.00 0.00 0.00 86 1018.2
20260906041305 17 236 4.8 6.4 0.00 0.00 0.00 86 1018.1
20260906041207 17 236 4.8 6.4 0.00 0.00 0.00 86 1018.2
20260906041104 17 236 4.8 6.4 0.00 0.00 0.00 86 1018.2
20260906041005 17 236 4.8 6.4 0.00 0.00 0.00 86 1018.2
20260906040907 17 236 6.4 6.4 0.00 0.00 0.00 86 1018.2
20260906040805 17 236 6.4 6.4 0.00 0.00 0.00 86 1018.1
20260906040705 17 236 6.4 6.4 0.00 0.00 0.00 86 1018.2
20260906040607 17 236 4.8 6.4 0.00 0.00 0.00 86 1018.2
20260906040504 17 236 4.8 6.4 0.00 0.00 0.00 86 1018.1
20260906040404 17 236 4.8 6.4 0.00 0.00 0.00 86 1018.2
20260906040308 17 236 4.8 6.4 0.00 0.00 0.00 86 1018.1
20260906040205 17 236 4.8 6.4 0.00 0.00 0.00 86 1018.1
20260906040011 17 236 4.8 6.4 0.00 0.00 0.00 86 1018.1
20260906035905 17 236 4.8 4.8 0.00 0.00 0.00 86 1018.1
20260906035805 17 236 3.2 4.8 0.00 0.00 0.00 86 1018.1
20260906035708 17 236 3.2 4.8 0.00 0.00 0.00 86 1018.1
20260906035407 17 236 3.2 4.8 0.00 0.00 0.00 86 1018.1
20260906035306 17 236 3.2 4.8 0.00 0.00 0.00 86 1018.1
20260906035205 17 236 3.2 4.8 0.00 0.00 0.00 86 1018.1
20260906035110 17 236 3.2 4.8 0.00 0.00 0.00 86 1018.1
20260906035005 17 236 3.2 6.4 0.00 0.00 0.00 86 1018.1
20260906034905 17 236 3.2 6.4 0.00 0.00 0.00 86 1018.1
20260906034807 17 236 1.6 6.4 0.00 0.00 0.00 86 1018.0
20260906034705 17 236 1.6 6.4 0.00 0.00 0.00 86 1017.9
20260906034605 17 236 3.2 6.4 0.00 0.00 0.00 86 1018.0
20260906034507 17 236 3.2 6.4 0.00 0.00 0.00 86 1017.9
20260906034304 17 236 3.2 6.4 0.00 0.00 0.00 85 1017.9
20260906034105 17 236 4.8 6.4 0.00 0.00 0.00 85 1017.9
20260906033907 17 190 4.8 6.4 0.00 0.00 0.00 85 1017.9
20260906033805 17 190 3.2 6.4 0.00 0.00 0.00 85 1017.9
20260906033607 17 190 4.8 6.4 0.00 0.00 0.00 85 1017.8
20260906033505 17 190 4.8 8.0 0.00 0.00 0.00 85 1017.8
20260906033307 17 190 4.8 8.0 0.00 0.00 0.00 85 1017.9
20260906033105 17 190 3.2 9.7 0.00 0.00 0.00 85 1017.9
20260906032905 17 190 4.8 9.7 0.00 0.00 0.00 85 1017.9
20260906032806 17 190 6.4 9.7 0.00 0.00 0.00 85 1017.9
20260906032707 17 190 4.8 9.7 0.00 0.00 0.00 85 1017.9
20260906032605 17 190 6.4 9.7 0.00 0.00 0.00 85 1017.9
20260906032505 17 190 6.4 9.7 0.00 0.00 0.00 85 1017.9
20260906032407 17 190 6.4 9.7 0.00 0.00 0.00 85 1017.9
20260906032306 17 190 6.4 9.7 0.00 0.00 0.00 85 1017.9
20260906032205 17 190 8.0 12.9 0.00 0.00 0.00 85 1017.8
20260906032107 17 190 6.4 12.9 0.00 0.00 0.00 85 1017.8
20260906032007 17 190 8.0 12.9 0.00 0.00 0.00 85 1017.9
20260906031905 17 190 8.0 12.9 0.00 0.00 0.00 85 1017.9
20260906031806 17 190 8.0 12.9 0.00 0.00 0.00 85 1017.8
20260906031705 17 190 8.0 12.9 0.00 0.00 0.00 85 1017.9
20260906031605 17 190 9.7 12.9 0.00 0.00 0.00 85 1017.9
20260906031405 17 185 9.7 12.9 0.00 0.00 0.00 85 1017.9
20260906031305 17 181 8.0 12.9 0.00 0.00 0.00 85 1017.9
20260906031206 17 180 9.7 11.3 0.00 0.00 0.00 85 1017.9
20260906031006 17 184 11.3 11.3 0.00 0.00 0.00 85 1018.0
20260906030907 17 187 9.7 11.3 0.00 0.00 0.00 85 1017.9
20260906030805 17 187 8.0 11.3 0.00 0.00 0.00 84 1017.9
20260906030705 17 187 8.0 11.3 0.00 0.00 0.00 84 1017.9
20260906030608 17 186 9.7 11.3 0.00 0.00 0.00 84 1017.9
20260906030505 17 183 9.7 11.3 0.00 0.00 0.00 84 1017.8
20260906030405 17 184 9.7 11.3 0.00 0.00 0.00 84 1017.9
20260906030306 17 184 9.7 11.3 0.00 0.00 0.00 84 1017.9
20260906030205 17 185 9.7 9.7 0.00 0.00 0.00 84 1017.9
20260906030105 17 186 6.4 9.7 0.00 0.00 0.00 84 1017.9
20260906030012 17 186 6.4 9.7 0.00 0.00 0.00 84 1017.9
20260906025904 17 238 6.4 8.0 0.00 0.00 0.00 84 1017.9
20260906025805 17 238 6.4 8.0 0.00 0.00 0.00 84 1017.9
20260906025708 17 342 3.2 8.0 0.00 0.00 0.00 84 1018.0
20260906025605 17 342 1.6 8.0 0.00 0.00 0.00 84 1018.0
20260906025505 17 342 3.2 8.0 0.00 0.00 0.00 84 1017.9
20260906025407 17 343 3.2 8.0 0.00 0.00 0.00 84 1017.8
20260906025306 17 342 3.2 8.0 0.00 0.00 0.00 84 1017.8
20260906025204 17 343 3.2 8.0 0.00 0.00 0.00 84 1017.8
20260906024905 17 338 8.0 14.5 0.00 0.00 0.00 84 1017.9
20260906024604 17 28 0.0 14.5 0.00 0.00 0.00 84 1017.9
20260906024507 17 25 4.8 14.5 0.00 0.00 0.00 85 1017.9
20260906024303 17 332 3.2 14.5 0.00 0.00 0.00 85 1017.7
20260906024206 17 332 1.6 14.5 0.00 0.00 0.00 85 1017.8
20260906024105 17 17 3.2 14.5 0.00 0.00 0.00 85 1017.8
20260906023805 17 32 8.0 12.9 0.00 0.00 0.00 86 1017.7
20260906023704 17 36 4.8 12.9 0.00 0.00 0.00 86 1017.7
20260906023607 17 29 9.7 12.9 0.00 0.00 0.00 87 1017.8
20260906023505 17 31 11.3 12.9 0.00 0.00 0.00 87 1017.7
20260906023405 17 25 8.0 9.7 0.00 0.00 0.00 87 1017.7
20260906023308 17 22 4.8 8.0 0.00 0.00 0.00 88 1017.7
20260906023205 17 19 4.8 6.4 0.00 0.00 0.00 88 1017.6
20260906023104 17 202 6.4 6.4 0.00 0.00 0.00 88 1017.6
20260906023009 17 202 4.8 6.4 0.00 0.00 0.00 88 1017.6
20260906022904 17 202 0.0 6.4 0.00 0.00 0.00 88 1017.5
20260906022805 17 202 0.0 6.4 0.00 0.00 0.00 88 1017.5
20260906022708 17 202 1.6 6.4 0.00 0.00 0.00 88 1017.5
20260906022606 17 202 1.6 8.0 0.00 0.00 0.00 88 1017.5
20260906022505 17 202 1.6 8.0 0.00 0.00 0.00 88 1017.4
20260906022407 17 202 4.8 8.0 0.00 0.00 0.00 88 1017.4
20260906022203 17 202 4.8 8.0 0.00 0.00 0.00 88 1017.4
20260906022107 17 202 4.8 8.0 0.00 0.00 0.00 88 1017.4
20260906022005 17 202 4.8 8.0 0.00 0.00 0.00 88 1017.3
20260906021808 17 202 4.8 8.0 0.00 0.00 0.00 88 1017.3
20260906021705 17 202 4.8 8.0 0.00 0.00 0.00 88 1017.3
20260906021604 17 202 6.4 8.0 0.00 0.00 0.00 88 1017.4
20260906021404 17 202 6.4 6.4 0.00 0.00 0.00 88 1017.4
20260906021305 17 202 6.4 6.4 0.00 0.00 0.00 88 1017.4
20260906021207 17 230 4.8 6.4 0.00 0.00 0.00 88 1017.4
20260906021105 17 230 3.2 6.4 0.00 0.00 0.00 88 1017.4
20260906021005 17 230 4.8 4.8 0.00 0.00 0.00 88 1017.4
20260906020907 17 230 3.2 4.8 0.00 0.00 0.00 88 1017.4
20260906020805 17 230 3.2 4.8 0.00 0.00 0.00 87 1017.3
20260906020705 17 230 1.6 3.2 0.00 0.00 0.00 87 1017.3
20260906020607 17 230 0.0 3.2 0.00 0.00 0.00 87 1017.4
20260906020505 17 230 0.0 3.2 0.00 0.00 0.00 87 1017.4
20260906020405 17 230 1.6 3.2 0.00 0.00 0.00 87 1017.3
20260906020307 17 230 0.0 3.2 0.00 0.00 0.00 87 1017.4
20260906020205 17 230 0.0 3.2 0.00 0.00 0.00 87 1017.3
20260906020013 17 230 1.6 3.2 0.00 0.00 0.00 87 1017.4
20260906015905 17 230 1.6 3.2 0.00 0.00 0.00 87 1017.3
20260906015805 17 230 1.6 4.8 0.00 0.00 0.00 87 1017.3
20260906015708 17 230 1.6 4.8 0.00 0.00 0.00 87 1017.3
20260906015605 17 230 1.6 4.8 0.00 0.00 0.00 87 1017.3
20260906015506 17 230 1.6 4.8 0.00 0.00 0.00 87 1017.3
20260906015406 17 230 1.6 4.8 0.00 0.00 0.00 87 1017.3
20260906015205 17 230 0.0 4.8 0.00 0.00 0.00 87 1017.3
20260906015107 17 230 0.0 4.8 0.00 0.00 0.00 87 1017.3
20260906015005 17 230 1.6 4.8 0.00 0.00 0.00 87 1017.2
20260906014904 17 230 1.6 4.8 0.00 0.00 0.00 86 1017.3
20260906014807 17 230 3.2 4.8 0.00 0.00 0.00 86 1017.3
20260906014705 17 230 3.2 4.8 0.00 0.00 0.00 86 1017.2
20260906014605 17 230 4.8 4.8 0.00 0.00 0.00 86 1017.2
20260906014508 17 230 0.0 0.0 0.00 0.00 0.00 86 1017.2
20260906014304 17 230 0.0 0.0 0.00 0.00 0.00 86 1017.1
20260906014107 17 230 0.0 0.0 0.00 0.00 0.00 86 1017.1
20260906014005 17 230 0.0 0.0 0.00 0.00 0.00 86 1017.1
20260906013807 17 230 0.0 0.0 0.00 0.00 0.00 86 1017.1
20260906013705 17 230 0.0 1.6 0.00 0.00 0.00 86 1017.1
20260906013604 17 230 0.0 1.6 0.00 0.00 0.00 86 1017.1
20260906013507 17 230 0.0 1.6 0.00 0.00 0.00 86 1017.2
20260906013404 17 230 0.0 3.2 0.00 0.00 0.00 86 1017.1
20260906013304 17 230 0.0 4.8 0.00 0.00 0.00 86 1017.1
20260906013207 17 230 0.0 4.8 0.00 0.00 0.00 86 1017.1
20260906013104 17 230 0.0 4.8 0.00 0.00 0.00 86 1017.1
20260906013005 17 230 0.0 4.8 0.00 0.00 0.00 86 1017.1
20260906012907 17 230 0.0 4.8 0.00 0.00 0.00 86 1017.1
20260906012804 17 230 0.0 4.8 0.00 0.00 0.00 86 1017.1
20260906012505 17 230 0.0 4.8 0.00 0.00 0.00 85 1017.1
20260906012404 17 230 1.6 4.8 0.00 0.00 0.00 85 1017.1
20260906012307 17 230 3.2 4.8 0.00 0.00 0.00 85 1017.1
20260906012204 17 230 3.2 4.8 0.00 0.00 0.00 85 1017.1
20260906012105 17 230 3.2 3.2 0.00 0.00 0.00 85 1017.1
20260906012008 17 230 1.6 3.2 0.00 0.00 0.00 85 1017.1
20260906011904 17 230 3.2 3.2 0.00 0.00 0.00 85 1017.1
20260906011804 17 230 1.6 3.2 0.00 0.00 0.00 85 1017.1
20260906011707 17 230 3.2 3.2 0.00 0.00 0.00 85 1017.0
20260906011604 17 230 3.2 3.2 0.00 0.00 0.00 85 1017.1
20260906011505 17 230 3.2 3.2 0.00 0.00 0.00 85 1017.1
20260906011407 17 230 1.6 3.2 0.00 0.00 0.00 85 1017.1
20260906011304 17 230 1.6 3.2 0.00 0.00 0.00 85 1017.1
20260906011204 17 230 3.2 4.8 0.00 0.00 0.00 85 1017.1
20260906011107 17 230 1.6 4.8 0.00 0.00 0.00 84 1017.0
20260906011005 17 230 1.6 4.8 0.00 0.00 0.00 84 1017.0
20260906010904 17 230 1.6 4.8 0.00 0.00 0.00 84 1017.0
20260906010704 17 230 3.2 4.8 0.00 0.00 0.00 84 1017.0
20260906010604 17 230 1.6 4.8 0.00 0.00 0.00 84 1017.0
20260906010507 17 230 3.2 4.8 0.00 0.00 0.00 84 1017.0
20260906010104 17 230 3.2 4.8 0.00 0.00 0.00 84 1016.9
20260906010007 17 230 4.8 4.8 0.00 0.00 0.00 84 1016.9
20260906005804 18 230 3.2 4.8 0.00 0.00 0.00 84 1016.9
20260906005704 18 230 4.8 4.8 0.00 0.00 0.00 84 1016.9
20260906005607 18 201 4.8 4.8 0.00 0.00 0.00 84 1016.9
20260906005404 18 201 1.6 3.2 0.00 0.00 0.00 84 1016.9
20260906005106 18 201 0.0 3.2 0.00 0.00 0.00 84 1016.9
20260906005007 18 201 1.6 4.8 0.00 0.00 0.00 83 1016.9
20260906004904 18 201 1.6 4.8 0.00 0.00 0.00 83 1016.9
20260906004806 18 201 0.0 4.8 0.00 0.00 0.00 83 1016.9
20260906004707 18 201 0.0 4.8 0.00 0.00 0.00 83 1016.9
20260906004504 18 201 0.0 4.8 0.00 0.00 0.00 83 1016.9
20260906004407 18 201 0.0 6.4 0.00 0.00 0.00 83 1016.9
20260906004204 18 201 0.0 6.4 0.00 0.00 0.00 83 1016.9
20260906004107 18 201 1.6 6.4 0.00 0.00 0.00 83 1017.0
20260906004005 18 201 4.8 6.4 0.00 0.00 0.00 83 1016.9
20260906003905 18 201 3.2 6.4 0.00 0.00 0.00 83 1016.9
20260906003807 18 201 1.6 6.4 0.00 0.00 0.00 83 1017.0
20260906003705 18 201 4.8 6.4 0.00 0.00 0.00 83 1016.9
20260906003604 18 201 3.2 8.0 0.00 0.00 0.00 83 1016.9
20260906003507 18 201 4.8 8.0 0.00 0.00 0.00 83 1017.0
20260906003303 18 201 4.8 8.0 0.00 0.00 0.00 83 1017.0
20260906003104 18 201 4.8 8.0 0.00 0.00 0.00 83 1017.0
20260906003005 18 212 3.2 8.0 0.00 0.00 0.00 83 1016.9
20260906002907 18 212 3.2 8.0 0.00 0.00 0.00 83 1017.0
20260906002704 18 212 4.8 8.0 0.00 0.00 0.00 83 1016.9
20260906002607 18 212 6.4 8.0 0.00 0.00 0.00 83 1016.9
20260906002404 18 198 6.4 8.0 0.00 0.00 0.00 83 1017.0
20260906002307 18 198 6.4 8.0 0.00 0.00 0.00 83 1016.9
20260906002204 18 198 6.4 8.0 0.00 0.00 0.00 83 1017.0
20260906002104 18 198 6.4 8.0 0.00 0.00 0.00 83 1016.9
20260906002008 18 198 4.8 8.0 0.00 0.00 0.00 83 1016.9
20260906001904 18 198 6.4 8.0 0.00 0.00 0.00 83 1016.9
20260906001707 18 225 4.8 6.4 0.00 0.00 0.00 83 1016.9
20260906001604 17 225 4.8 6.4 0.00 0.00 0.00 83 1016.9
20260906001504 17 225 3.2 6.4 0.00 0.00 0.00 83 1017.0
20260906001407 17 225 3.2 6.4 0.00 0.00 0.00 83 1016.9
20260906001304 17 225 3.2 6.4 0.00 0.00 0.00 83 1017.0
20260906001205 17 225 4.8 6.4 0.00 0.00 0.00 83 1016.9
20260906001107 17 225 4.8 6.4 0.00 0.00 0.00 83 1016.9
20260906000904 17 225 4.8 6.4 0.00 0.00 0.00 83 1016.9
20260906000807 17 225 4.8 6.4 0.00 0.00 0.00 83 1016.9
20260906000704 17 225 4.8 6.4 0.00 0.00 0.00 83 1016.9
20260906000507 17 227 4.8 6.4 0.00 0.00 0.00 83 1016.9
20260906000404 17 227 4.8 6.4 0.00 0.00 0.00 82 1016.9
20260906000304 17 227 4.8 6.4 0.00 0.00 0.00 82 1017.0
20260906000207 17 227 3.2 6.4 0.00 0.00 0.00 82 1016.9
20260906000117 17 227 4.8 4.8 0.00 0.00 0.00 82 1016.9
20260906000007 17 227 4.8 4.8 0.00 0.00 0.00 82 1017.0
20260905235906 17 227 3.2 4.8 0.00 0.00 0.00 82 1016.9
20260905235804 17 227 4.8 4.8 0.00 0.00 0.00 82 1016.9
20260905235504 18 22 3.2 4.8 0.00 0.00 0.00 82 1016.9
20260905235405 18 22 3.2 4.8 0.00 0.00 0.00 81 1016.9
20260905235307 18 22 4.8 4.8 0.00 0.00 0.00 81 1016.9
20260905235205 18 22 4.8 4.8 0.00 0.00 0.00 81 1016.9
20260905235104 18 22 4.8 6.4 0.00 0.00 0.00 81 1016.9
20260905235007 18 22 4.8 6.4 0.00 0.00 0.00 81 1016.8
20260905234604 18 22 4.8 6.4 0.00 0.00 0.00 81 1016.8
20260905234305 18 22 3.2 6.4 0.00 0.00 0.00 81 1016.7
20260905234204 18 22 4.8 6.4 0.00 0.00 0.00 81 1016.8
20260905234107 18 22 4.8 6.4 0.00 0.00 0.00 81 1016.7
20260905234005 18 22 4.8 6.4 0.00 0.00 0.00 81 1016.7
20260905233904 18 22 3.2 6.4 0.00 0.00 0.00 81 1016.8
20260905233807 18 22 3.2 6.4 0.00 0.00 0.00 81 1016.7
20260905233705 18 22 3.2 6.4 0.00 0.00 0.00 81 1016.7
20260905233604 18 22 3.2 6.4 0.00 0.00 0.00 81 1016.7
20260905233507 18 22 4.8 6.4 0.00 0.00 0.00 81 1016.7
20260905233404 18 22 4.8 6.4 0.00 0.00 0.00 81 1016.7
20260905233304 18 22 4.8 6.4 0.00 0.00 0.00 81 1016.7
20260905233208 18 22 4.8 4.8 0.00 0.00 0.00 81 1016.7
20260905233104 18 22 4.8 4.8 0.00 0.00 0.00 81 1016.7
20260905233005 18 22 4.8 4.8 0.00 0.00 0.00 81 1016.7
20260905232907 18 22 3.2 4.8 0.00 0.00 0.00 81 1016.7
20260905232704 18 22 3.2 4.8 0.00 0.00 0.00 81 1016.7
20260905232607 18 22 3.2 4.8 0.00 0.00 0.00 81 1016.7
20260905232504 18 22 3.2 4.8 0.00 0.00 0.00 81 1016.7
20260905232405 18 22 1.6 4.8 0.00 0.00 0.00 81 1016.7
20260905232307 18 22 3.2 4.8 0.00 0.00 0.00 81 1016.7
20260905232204 18 22 3.2 4.8 0.00 0.00 0.00 81 1016.7
20260905232104 18 22 3.2 4.8 0.00 0.00 0.00 81 1016.8
20260905232008 18 22 3.2 4.8 0.00 0.00 0.00 81 1016.7
20260905231904 18 22 3.2 4.8 0.00 0.00 0.00 81 1016.7
20260905231707 18 22 3.2 4.8 0.00 0.00 0.00 81 1016.8
20260905231604 18 22 4.8 4.8 0.00 0.00 0.00 81 1016.8
20260905231504 18 22 3.2 4.8 0.00 0.00 0.00 81 1016.8
20260905231407 18 22 3.2 3.2 0.00 0.00 0.00 81 1016.8
20260905231304 18 22 0.0 3.2 0.00 0.00 0.00 80 1016.8
20260905231107 18 22 0.0 3.2 0.00 0.00 0.00 81 1016.8
20260905231005 18 22 0.0 3.2 0.00 0.00 0.00 81 1016.8
20260905230904 18 22 1.6 3.2 0.00 0.00 0.00 81 1016.8
20260905230807 18 22 0.0 3.2 0.00 0.00 0.00 80 1016.8
20260905230404 18 22 0.0 3.2 0.00 0.00 0.00 80 1016.8
20260905230305 18 22 1.6 3.2 0.00 0.00 0.00 80 1016.8
20260905230207 18 22 1.6 3.2 0.00 0.00 0.00 80 1016.8
20260905230105 18 22 0.0 3.2 0.00 0.00 0.00 80 1016.7
20260905230008 18 22 0.0 3.2 0.00 0.00 0.00 80 1016.8
20260905225907 18 22 0.0 3.2 0.00 0.00 0.00 80 1016.8
20260905225804 18 22 0.0 3.2 0.00 0.00 0.00 80 1016.8
20260905225704 18 22 1.6 4.8 0.00 0.00 0.00 80 1016.8
20260905225607 18 22 1.6 4.8 0.00 0.00 0.00 81 1016.7
20260905225404 18 22 0.0 4.8 0.00 0.00 0.00 81 1016.7
20260905225204 18 22 1.6 4.8 0.00 0.00 0.00 81 1016.7
20260905225104 18 22 1.6 4.8 0.00 0.00 0.00 81 1016.7
20260905225008 18 22 3.2 4.8 0.00 0.00 0.00 81 1016.7
20260905224905 18 22 3.2 4.8 0.00 0.00 0.00 81 1016.7
20260905224804 18 22 1.6 4.8 0.00 0.00 0.00 81 1016.7
20260905224707 18 22 1.6 4.8 0.00 0.00 0.00 80 1016.7
20260905224604 18 22 3.2 4.8 0.00 0.00 0.00 80 1016.6
20260905224504 18 22 3.2 4.8 0.00 0.00 0.00 80 1016.6
20260905224304 18 22 1.6 4.8 0.00 0.00 0.00 80 1016.6
20260905224205 18 22 1.6 4.8 0.00 0.00 0.00 80 1016.6
20260905224107 18 22 1.6 4.8 0.00 0.00 0.00 80 1016.5
20260905224005 18 22 0.0 4.8 0.00 0.00 0.00 80 1016.5
20260905223904 18 22 3.2 4.8 0.00 0.00 0.00 80 1016.6
20260905223807 18 22 1.6 4.8 0.00 0.00 0.00 80 1016.6
20260905223604 18 22 3.2 4.8 0.00 0.00 0.00 80 1016.5
20260905223508 19 22 4.8 4.8 0.00 0.00 0.00 80 1016.5
20260905223404 19 22 4.8 4.8 0.00 0.00 0.00 79 1016.5
20260905223304 19 22 3.2 4.8 0.00 0.00 0.00 79 1016.5
20260905223207 19 22 1.6 4.8 0.00 0.00 0.00 79 1016.5
20260905223105 19 22 0.0 4.8 0.00 0.00 0.00 79 1016.5
20260905222805 19 22 1.6 4.8 0.00 0.00 0.00 79 1016.4
20260905222704 19 22 1.6 4.8 0.00 0.00 0.00 78 1016.4
20260905222607 19 22 3.2 4.8 0.00 0.00 0.00 78 1016.4
20260905222505 19 22 3.2 4.8 0.00 0.00 0.00 78 1016.4
20260905222307 19 355 4.8 4.8 0.00 0.00 0.00 77 1016.4
20260905222203 19 355 3.2 4.8 0.00 0.00 0.00 77 1016.3
20260905222009 19 355 3.2 4.8 0.00 0.00 0.00 77 1016.3
20260905221905 19 355 3.2 4.8 0.00 0.00 0.00 77 1016.3
20260905221804 19 355 3.2 4.8 0.00 0.00 0.00 77 1016.3
20260905221707 19 355 3.2 4.8 0.00 0.00 0.00 77 1016.3
20260905221505 19 209 1.6 3.2 0.00 0.00 0.00 77 1016.3
20260905221407 19 209 1.6 3.2 0.00 0.00 0.00 77 1016.3
20260905221304 19 209 1.6 3.2 0.00 0.00 0.00 77 1016.3
20260905221204 19 209 1.6 4.8 0.00 0.00 0.00 77 1016.3
20260905221107 19 209 1.6 4.8 0.00 0.00 0.00 77 1016.3
20260905221005 19 209 1.6 4.8 0.00 0.00 0.00 76 1016.3
20260905220905 19 209 0.0 4.8 0.00 0.00 0.00 76 1016.3
20260905220807 19 209 0.0 4.8 0.00 0.00 0.00 76 1016.2
20260905220704 19 209 0.0 4.8 0.00 0.00 0.00 76 1016.3
20260905220604 19 209 1.6 4.8 0.00 0.00 0.00 76 1016.2
20260905220507 19 209 1.6 4.8 0.00 0.00 0.00 76 1016.2
20260905220404 19 209 1.6 4.8 0.00 0.00 0.00 77 1016.3
20260905220304 19 209 3.2 4.8 0.00 0.00 0.00 77 1016.2
20260905220207 19 209 3.2 4.8 0.00 0.00 0.00 77 1016.3
20260905220120 19 209 4.8 4.8 0.00 0.00 0.00 77 1016.2
20260905220010 19 209 4.8 4.8 0.00 0.00 0.00 77 1016.2
20260905215908 19 209 4.8 4.8 0.00 0.00 0.00 77 1016.3
20260905215806 19 209 3.2 4.8 0.00 0.00 0.00 78 1016.2
20260905215706 19 209 3.2 4.8 0.00 0.00 0.00 78 1016.3
20260905215608 19 209 4.8 4.8 0.00 0.00 0.00 78 1016.2
20260905215505 19 209 4.8 4.8 0.00 0.00 0.00 78 1016.2
20260905215008 19 148 3.2 3.2 0.00 0.00 0.00 77 1016.1
20260905214905 19 148 1.6 3.2 0.00 0.00 0.00 78 1016.1
20260905214806 19 148 1.6 3.2 0.00 0.00 0.00 78 1016.2
20260905214708 19 148 1.6 3.2 0.00 0.00 0.00 78 1016.1
20260905214605 19 148 1.6 3.2 0.00 0.00 0.00 78 1016.1
20260905214506 19 148 0.0 0.0 0.00 0.00 0.00 78 1016.1
20260905214407 19 148 0.0 1.6 0.00 0.00 0.00 78 1016.1
20260905214305 20 148 0.0 1.6 0.00 0.00 0.00 78 1016.1
20260905214205 20 148 0.0 1.6 0.00 0.00 0.00 78 1016.1
20260905214108 20 148 0.0 1.6 0.00 0.00 0.00 78 1016.1
20260905214006 20 148 0.0 1.6 0.00 0.00 0.00 78 1016.1
20260905213905 20 148 0.0 3.2 0.00 0.00 0.00 78 1016.1
20260905213808 20 148 0.0 3.2 0.00 0.00 0.00 78 1016.1
20260905213705 20 148 0.0 3.2 0.00 0.00 0.00 78 1016.1
20260905213605 20 148 0.0 3.2 0.00 0.00 0.00 78 1016.1
20260905213508 20 148 0.0 3.2 0.00 0.00 0.00 78 1016.1
20260905213405 20 148 0.0 4.8 0.00 0.00 0.00 77 1016.1
20260905213305 20 148 1.6 4.8 0.00 0.00 0.00 77 1016.1
20260905213208 20 148 0.0 4.8 0.00 0.00 0.00 77 1016.2
20260905213105 20 148 0.0 4.8 0.00 0.00 0.00 76 1016.2
20260905213006 20 148 1.6 4.8 0.00 0.00 0.00 76 1016.1
20260905212908 20 148 1.6 4.8 0.00 0.00 0.00 76 1016.2
20260905212806 20 148 1.6 4.8 0.00 0.00 0.00 76 1016.2
20260905212705 20 148 3.2 4.8 0.00 0.00 0.00 76 1016.2
20260905212609 20 148 1.6 4.8 0.00 0.00 0.00 76 1016.1
20260905212505 20 148 1.6 4.8 0.00 0.00 0.00 76 1016.2
20260905212206 20 148 0.0 0.0 0.00 0.00 0.00 75 1016.1
20260905212105 20 148 0.0 0.0 0.00 0.00 0.00 75 1016.1
20260905212011 20 148 0.0 1.6 0.00 0.00 0.00 75 1016.1
20260905211805 20 148 0.0 3.2 0.00 0.00 0.00 74 1016.1
20260905211709 20 148 0.0 3.2 0.00 0.00 0.00 74 1016.0
20260905211605 20 148 0.0 3.2 0.00 0.00 0.00 74 1016.0
20260905211505 20 148 0.0 3.2 0.00 0.00 0.00 74 1016.0
20260905211408 20 148 0.0 3.2 0.00 0.00 0.00 74 1016.0
20260905211306 20 148 0.0 3.2 0.00 0.00 0.00 74 1016.0
20260905211205 20 148 0.0 4.8 0.00 0.00 0.00 74 1016.0
20260905211006 20 148 0.0 4.8 0.00 0.00 0.00 74 1016.0
20260905210905 20 148 0.0 4.8 0.00 0.00 0.00 74 1016.0
20260905210808 20 197 0.0 4.8 0.00 0.00 0.00 74 1015.9
20260905210706 20 197 0.0 4.8 0.00 0.00 0.00 74 1015.9
20260905210605 20 197 1.6 4.8 0.00 0.00 0.00 74 1015.9
20260905210508 20 197 1.6 4.8 0.00 0.00 0.00 74 1015.9
20260905210406 20 197 0.0 4.8 0.00 0.00 0.00 74 1015.9
20260905210105 20 197 1.6 4.8 0.00 0.00 0.00 74 1015.9
20260905210009 20 197 3.2 4.8 0.00 0.00 0.00 74 1015.9
20260905205908 20 197 3.2 4.8 0.00 0.00 0.00 74 1015.9
20260905205608 20 197 3.2 4.8 0.00 0.00 0.00 74 1015.9
20260905205506 20 197 3.2 6.4 0.00 0.00 0.00 73 1015.9
20260905205405 20 197 1.6 6.4 0.00 0.00 0.00 73 1015.9
20260905205308 20 197 1.6 6.4 0.00 0.00 0.00 73 1015.9
20260905205105 20 197 3.2 6.4 0.00 0.00 0.00 73 1015.8
20260905205011 20 197 3.2 6.4 0.00 0.00 0.00 74 1015.8
20260905204905 20 197 3.2 6.4 0.00 0.00 0.00 74 1015.8
20260905204806 20 197 4.8 6.4 0.00 0.00 0.00 74 1015.9
20260905204708 20 197 4.8 6.4 0.00 0.00 0.00 74 1015.9
20260905204605 20 197 4.8 6.4 0.00 0.00 0.00 74 1015.9
20260905204408 20 197 4.8 6.4 0.00 0.00 0.00 74 1015.9
20260905204205 20 190 4.8 6.4 0.00 0.00 0.00 74 1015.9
20260905203905 20 190 3.2 6.4 0.00 0.00 0.00 73 1015.9
20260905203809 20 190 1.6 6.4 0.00 0.00 0.00 73 1015.9
20260905203605 20 190 4.8 6.4 0.00 0.00 0.00 73 1015.9
20260905203405 20 190 4.8 8.0 0.00 0.00 0.00 72 1016.0
20260905203305 20 190 4.8 8.0 0.00 0.00 0.00 72 1015.9
20260905203208 20 190 4.8 8.0 0.00 0.00 0.00 72 1015.9
20260905203106 20 190 4.8 8.0 0.00 0.00 0.00 72 1015.9
20260905203006 20 190 3.2 8.0 0.00 0.00 0.00 72 1016.0
20260905202908 20 190 4.8 8.0 0.00 0.00 0.00 72 1016.0
20260905202805 20 190 4.8 8.0 0.00 0.00 0.00 72 1016.0
20260905202705 20 190 6.4 8.0 0.00 0.00 0.00 72 1015.9
20260905202608 20 190 4.8 8.0 0.00 0.00 0.00 72 1015.9
20260905202506 21 190 4.8 8.0 0.00 0.00 0.00 72 1016.0
20260905202308 21 213 4.8 6.4 0.00 0.00 0.00 71 1015.9
20260905202105 21 213 3.2 6.4 0.00 0.00 0.00 71 1015.9
20260905202010 21 213 3.2 6.4 0.00 0.00 0.00 71 1015.9
20260905201905 21 213 3.2 6.4 0.00 0.00 0.00 71 1015.9
20260905201806 21 213 3.2 6.4 0.00 0.00 0.00 72 1015.9
20260905201709 21 213 3.2 6.4 0.00 0.00 0.00 72 1015.9
20260905201505 21 213 4.8 4.8 0.00 0.00 0.00 72 1015.9
20260905201408 21 213 4.8 4.8 0.00 0.00 0.00 72 1016.0
20260905201305 21 213 3.2 4.8 0.00 0.00 0.00 71 1015.9
20260905201204 21 213 3.2 4.8 0.00 0.00 0.00 71 1016.0
20260905201107 21 213 3.2 4.8 0.00 0.00 0.00 72 1015.9
20260905201006 21 213 3.2 4.8 0.00 0.00 0.00 72 1015.9
20260905200905 21 213 3.2 3.2 0.00 0.00 0.00 72 1015.9
20260905200808 21 213 3.2 3.2 0.00 0.00 0.00 72 1015.9
20260905200706 21 213 1.6 3.2 0.00 0.00 0.00 72 1015.9
20260905200605 21 213 0.0 3.2 0.00 0.00 0.00 72 1015.9
20260905200508 21 213 1.6 3.2 0.00 0.00 0.00 72 1015.8
20260905200405 21 213 3.2 3.2 0.00 0.00 0.00 72 1015.8
20260905200305 21 213 3.2 3.2 0.00 0.00 0.00 71 1015.8
20260905200208 21 213 0.0 3.2 0.00 0.00 0.00 71 1015.7
20260905200121 21 213 0.0 3.2 0.00 0.00 0.00 71 1015.7
20260905200009 21 213 0.0 3.2 0.00 0.00 0.00 72 1015.7
20260905195908 21 213 0.0 3.2 0.00 0.00 0.00 72 1015.8
20260905195805 21 213 1.6 3.2 0.00 0.00 0.00 72 1015.8
20260905195608 21 213 1.6 3.2 0.00 0.00 0.00 72 1015.8
20260905195506 21 213 1.6 3.2 0.00 0.00 0.00 71 1015.7
20260905195405 21 213 0.0 3.2 0.00 0.00 0.00 70 1015.8
20260905195308 22 213 0.0 3.2 0.00 0.00 0.00 70 1015.8
20260905195205 22 213 1.6 3.2 0.00 0.00 0.00 70 1015.7
20260905195105 22 213 1.6 3.2 0.00 0.00 0.00 69 1015.7
20260905195010 22 213 3.2 3.2 0.00 0.00 0.00 69 1015.7
20260905194904 22 213 1.6 1.6 0.00 0.00 0.00 69 1015.7
20260905194708 22 213 0.0 3.2 0.00 0.00 0.00 69 1015.7
20260905194606 22 213 0.0 3.2 0.00 0.00 0.00 69 1015.7
20260905194505 22 213 0.0 3.2 0.00 0.00 0.00 68 1015.8
20260905194305 22 213 0.0 3.2 0.00 0.00 0.00 68 1015.7
20260905194206 22 213 0.0 3.2 0.00 0.00 0.00 68 1015.7
20260905194108 22 213 0.0 3.2 0.00 0.00 0.00 68 1015.7
20260905193808 22 213 0.0 4.8 0.00 0.00 0.00 68 1015.6
20260905193706 22 213 1.6 4.8 0.00 0.00 0.00 68 1015.6
20260905193605 22 213 3.2 4.8 0.00 0.00 0.00 67 1015.6
20260905193508 22 213 1.6 4.8 0.00 0.00 0.00 67 1015.6
20260905193405 22 213 3.2 4.8 0.00 0.00 0.00 67 1015.6
20260905193208 22 213 1.6 4.8 0.00 0.00 0.00 67 1015.6
20260905193106 22 213 3.2 4.8 0.00 0.00 0.00 68 1015.6
20260905192907 22 213 0.0 4.8 0.00 0.00 0.00 67 1015.5
20260905192804 22 213 3.2 4.8 0.00 0.00 0.00 66 1015.5
20260905192607 22 213 1.6 4.8 0.00 0.00 0.00 66 1015.5
20260905192506 22 213 1.6 6.4 0.00 0.00 0.00 65 1015.5
20260905192405 22 213 1.6 6.4 0.00 0.00 0.00 65 1015.5
20260905192308 22 213 1.6 6.4 0.00 0.00 0.00 65 1015.5
20260905192205 22 213 3.2 6.4 0.00 0.00 0.00 64 1015.5
20260905192106 22 213 4.8 6.4 0.00 0.00 0.00 65 1015.4
20260905191905 22 213 3.2 6.4 0.00 0.00 0.00 64 1015.5
20260905191708 22 213 3.2 8.0 0.00 0.00 0.00 64 1015.5
20260905191606 22 213 4.8 8.0 0.00 0.00 0.00 64 1015.5
20260905191407 22 213 4.8 8.0 0.00 0.00 0.00 64 1015.4
20260905191305 22 213 4.8 8.0 0.00 0.00 0.00 65 1015.4
20260905191108 23 213 3.2 8.0 0.00 0.00 0.00 65 1015.4
20260905190905 23 213 4.8 8.0 0.00 0.00 0.00 65 1015.3
20260905190605 23 223 8.0 8.0 0.00 0.00 0.00 65 1015.2
20260905190405 23 107 4.8 4.8 0.00 0.00 0.00 65 1015.2
20260905190305 23 107 3.2 4.8 0.00 0.00 0.00 64 1015.2
20260905190208 23 107 3.2 4.8 0.00 0.00 0.00 63 1015.2
20260905190105 23 107 3.2 4.8 0.00 0.00 0.00 63 1015.2
20260905190008 23 107 3.2 4.8 0.00 0.00 0.00 63 1015.2
20260905185907 23 107 3.2 4.8 0.00 0.00 0.00 63 1015.2
20260905185805 23 107 4.8 4.8 0.00 0.00 0.00 63 1015.2
20260905185705 23 107 3.2 4.8 0.00 0.00 0.00 63 1015.2
20260905185606 23 107 3.2 4.8 0.00 0.00 0.00 63 1015.1
20260905185505 23 107 1.6 3.2 0.00 0.00 0.00 63 1015.1
20260905185406 23 107 0.0 1.6 0.00 0.00 0.00 63 1015.2
20260905185307 23 107 1.6 1.6 0.00 0.00 0.00 63 1015.2
20260905185205 23 107 0.0 1.6 0.00 0.00 0.00 63 1015.1
20260905185105 23 107 0.0 1.6 0.00 0.00 0.00 63 1015.1
20260905185009 23 107 1.6 1.6 0.00 0.00 0.00 62 1015.1
20260905184605 24 107 1.6 3.2 0.00 0.00 0.00 60 1015.0
20260905184505 24 107 1.6 3.2 0.00 0.00 0.00 60 1015.0
20260905184407 24 107 1.6 3.2 0.00 0.00 0.00 60 1015.0
20260905184305 24 107 1.6 3.2 0.00 0.00 0.00 59 1015.0
20260905184205 24 107 1.6 3.2 0.00 0.00 0.00 59 1015.0
20260905184006 24 107 1.6 3.2 0.00 0.00 0.00 59 1015.0
20260905183906 24 107 0.0 3.2 0.00 0.00 0.00 60 1015.1
20260905183808 25 107 1.6 3.2 0.00 0.00 0.00 60 1015.0
20260905183705 25 107 3.2 3.2 0.00 0.00 0.00 60 1015.0
20260905183405 25 107 1.6 3.2 0.00 0.00 0.00 59 1015.0
20260905183305 25 107 0.0 4.8 0.00 0.00 0.00 58 1015.0
20260905183208 25 107 3.2 4.8 0.00 0.00 0.00 58 1014.9
20260905183105 25 107 1.6 4.8 0.00 0.00 0.00 59 1014.9
20260905183006 25 107 1.6 4.8 0.00 0.00 0.00 58 1014.9
20260905182907 25 107 3.2 4.8 0.00 0.00 0.00 58 1014.9
20260905182805 25 107 0.0 4.8 0.00 0.00 0.00 58 1014.9
20260905182608 25 107 0.0 8.0 0.00 0.00 0.00 57 1014.9
20260905182505 26 107 0.0 8.0 0.00 0.00 0.00 56 1014.9
20260905182307 26 107 3.2 8.0 0.00 0.00 0.00 54 1014.7
20260905182205 26 105 1.6 8.0 0.00 0.00 0.00 53 1014.7
20260905182105 26 105 3.2 8.0 0.00 0.00 0.00 53 1014.8
20260905182008 26 105 3.2 8.0 0.00 0.00 0.00 52 1014.8
20260905181905 26 105 1.6 8.0 0.00 0.00 0.00 52 1014.7
20260905181805 26 105 3.2 8.0 0.00 0.00 0.00 52 1014.7
20260905181604 26 103 4.8 8.0 0.00 0.00 0.00 52 1014.7
20260905181505 26 105 4.8 8.0 0.00 0.00 0.00 52 1014.7
20260905181408 26 115 4.8 8.0 0.00 0.00 0.00 52 1014.7
20260905181305 26 127 4.8 8.0 0.00 0.00 0.00 52 1014.7
20260905181107 26 127 3.2 8.0 0.00 0.00 0.00 54 1014.7
20260905181006 26 127 4.8 8.0 0.00 0.00 0.00 54 1014.7
20260905180905 27 137 4.8 8.0 0.00 0.00 0.00 54 1014.6
20260905180807 27 115 4.8 8.0 0.00 0.00 0.00 52 1014.6
20260905180705 27 111 4.8 8.0 0.00 0.00 0.00 53 1014.6
20260905180605 27 112 4.8 8.0 0.00 0.00 0.00 52 1014.5
20260905180508 27 114 3.2 6.4 0.00 0.00 0.00 52 1014.6
20260905180405 27 130 6.4 6.4 0.00 0.00 0.00 52 1014.5
20260905180305 27 119 4.8 4.8 0.00 0.00 0.00 52 1014.6
20260905180208 27 235 3.2 4.8 0.00 0.00 0.00 51 1014.6
20260905180120 27 235 1.6 6.4 0.00 0.00 0.00 50 1014.6
20260905180008 27 235 1.6 6.4 0.00 0.00 0.00 50 1014.6
20260905175908 27 235 0.0 6.4 0.00 0.00 0.00 49 1014.6
20260905175805 27 235 3.2 6.4 0.00 0.00 0.00 49 1014.6
20260905175705 27 235 0.0 6.4 0.00 0.00 0.00 49 1014.5
20260905175607 27 235 1.6 6.4 0.00 0.00 0.00 50 1014.5
20260905175405 28 235 0.0 6.4 0.00 0.00 0.00 49 1014.5
20260905175307 28 235 0.0 6.4 0.00 0.00 0.00 50 1014.5
20260905175206 28 235 1.6 6.4 0.00 0.00 0.00 49 1014.5
20260905175105 28 235 3.2 6.4 0.00 0.00 0.00 49 1014.5
20260905175008 28 235 3.2 6.4 0.00 0.00 0.00 48 1014.5
20260905174905 28 235 6.4 6.4 0.00 0.00 0.00 48 1014.5
20260905174805 28 235 4.8 8.0 0.00 0.00 0.00 48 1014.5
20260905174707 28 237 6.4 8.0 0.00 0.00 0.00 48 1014.5
20260905174605 28 230 3.2 8.0 0.00 0.00 0.00 47 1014.5
20260905174305 29 82 0.0 11.3 0.00 0.00 0.00 46 1014.5
20260905174205 29 82 4.8 11.3 0.00 0.00 0.00 47 1014.5
20260905174108 29 82 0.0 11.3 0.00 0.00 0.00 45 1014.4
20260905174006 29 103 3.2 11.3 0.00 0.00 0.00 45 1014.4
20260905173905 29 65 3.2 11.3 0.00 0.00 0.00 44 1014.3
20260905173807 29 72 6.4 12.9 0.00 0.00 0.00 44 1014.4
20260905173705 30 60 4.8 12.9 0.00 0.00 0.00 44 1014.3
20260905173605 30 80 8.0 14.5 0.00 0.00 0.00 44 1014.3
20260905173508 30 90 9.7 14.5 0.00 0.00 0.00 44 1014.3
20260905173405 30 91 8.0 14.5 0.00 0.00 0.00 44 1014.2
20260905173305 30 76 6.4 14.5 0.00 0.00 0.00 44 1014.2
20260905173207 30 98 8.0 14.5 0.00 0.00 0.00 44 1014.2
20260905173105 30 113 4.8 14.5 0.00 0.00 0.00 44 1014.2
20260905173006 30 92 8.0 14.5 0.00 0.00 0.00 44 1014.2
20260905172906 30 94 9.7 14.5 0.00 0.00 0.00 44 1014.2
20260905172805 30 58 6.4 14.5 0.00 0.00 0.00 44 1014.2
20260905172705 30 42 4.8 14.5 0.00 0.00 0.00 44 1014.2
20260905172607 30 70 4.8 14.5 0.00 0.00 0.00 44 1014.2
20260905172505 30 52 6.4 14.5 0.00 0.00 0.00 44 1014.1
20260905172405 30 64 3.2 14.5 0.00 0.00 0.00 44 1014.2
20260905172308 30 55 6.4 14.5 0.00 0.00 0.00 43 1014.1
20260905172105 30 61 8.0 20.9 0.00 0.00 0.00 43 1014.1
20260905172009 31 46 4.8 20.9 0.00 0.00 0.00 43 1014.1
20260905171906 31 75 8.0 20.9 0.00 0.00 0.00 44 1014.1
20260905171804 31 81 4.8 20.9 0.00 0.00 0.00 44 1014.1
20260905171605 31 57 6.4 20.9 0.00 0.00 0.00 43 1014.1
20260905171505 31 49 6.4 20.9 0.00 0.00 0.00 43 1014.1
20260905171407 31 53 8.0 20.9 0.00 0.00 0.00 42 1014.1
20260905171306 31 81 9.7 20.9 0.00 0.00 0.00 42 1014.1
20260905171108 31 79 17.7 20.9 0.00 0.00 0.00 43 1014.1
20260905170905 31 105 12.9 19.3 0.00 0.00 0.00 42 1014.1
20260905170808 31 114 8.0 22.5 0.00 0.00 0.00 43 1014.0
20260905170705 31 107 6.4 22.5 0.00 0.00 0.00 42 1014.0
20260905170605 32 90 16.1 22.5 0.00 0.00 0.00 42 1014.0
20260905170508 32 81 16.1 22.5 0.00 0.00 0.00 42 1014.0
20260905170406 32 88 16.1 22.5 0.00 0.00 0.00 42 1014.0
20260905170305 32 82 9.7 22.5 0.00 0.00 0.00 41 1014.0
20260905170206 32 91 11.3 22.5 0.00 0.00 0.00 41 1014.0
20260905170105 32 76 8.0 22.5 0.00 0.00 0.00 40 1013.9
20260905170008 32 76 12.9 22.5 0.00 0.00 0.00 40 1014.0
20260905165906 32 57 11.3 22.5 0.00 0.00 0.00 41 1013.9
20260905165806 32 88 17.7 22.5 0.00 0.00 0.00 40 1013.9
20260905165607 33 121 1.6 12.9 0.00 0.00 0.00 40 1013.9
20260905165505 33 92 3.2 12.9 0.00 0.00 0.00 41 1013.9
20260905165405 33 115 8.0 16.1 0.00 0.00 0.00 39 1013.9
20260905165205 33 109 3.2 16.1 0.00 0.00 0.00 39 1013.9
20260905165105 33 68 3.2 16.1 0.00 0.00 0.00 39 1013.9
20260905165009 33 80 3.2 16.1 0.00 0.00 0.00 38 1013.9
20260905164905 33 78 4.8 16.1 0.00 0.00 0.00 39 1013.9
20260905164805 33 53 6.4 16.1 0.00 0.00 0.00 38 1013.9
20260905164408 33 74 14.5 16.1 0.00 0.00 0.00 38 1013.9
20260905164305 34 88 11.3 14.5 0.00 0.00 0.00 37 1013.9
20260905164006 34 96 8.0 11.3 0.00 0.00 0.00 36 1013.9
20260905163905 34 169 3.2 16.1 0.00 0.00 0.00 36 1013.9
20260905163807 34 169 1.6 16.1 0.00 0.00 0.00 35 1013.9
20260905163605 34 154 3.2 16.1 0.00 0.00 0.00 35 1013.8
20260905163508 34 81 1.6 16.1 0.00 0.00 0.00 35 1013.8
20260905163405 34 213 4.8 16.1 0.00 0.00 0.00 35 1013.8
20260905163105 34 203 6.4 17.7 0.00 0.00 0.00 34 1013.7
20260905162907 34 203 11.3 20.9 0.00 0.00 0.00 35 1013.7
20260905162805 34 224 4.8 20.9 0.00 0.00 0.00 35 1013.7
20260905162705 34 238 6.4 20.9 0.00 0.00 0.00 35 1013.6
20260905162607 34 234 9.7 20.9 0.00 0.00 0.00 34 1013.7
20260905162404 34 198 11.3 20.9 0.00 0.00 0.00 35 1013.7
20260905162205 34 223 11.3 20.9 0.00 0.00 0.00 35 1013.6
20260905162105 34 210 11.3 20.9 0.00 0.00 0.00 35 1013.6
20260905162009 34 209 11.3 20.9 0.00 0.00 0.00 35 1013.6
20260905161905 34 238 19.3 20.9 0.00 0.00 0.00 34 1013.6
20260905161805 34 212 17.7 20.9 0.00 0.00 0.00 34 1013.6
20260905161707 34 204 11.3 20.9 0.00 0.00 0.00 34 1013.6
20260905161605 35 227 11.3 20.9 0.00 0.00 0.00 34 1013.6
20260905161507 35 217 17.7 20.9 0.00 0.00 0.00 34 1013.6
20260905161408 35 211 11.3 20.9 0.00 0.00 0.00 34 1013.6
20260905161304 35 208 11.3 22.5 0.00 0.00 0.00 34 1013.5
20260905161107 35 216 11.3 22.5 0.00 0.00 0.00 34 1013.6
20260905161006 35 202 9.7 22.5 0.00 0.00 0.00 33 1013.5
20260905160905 35 215 12.9 22.5 0.00 0.00 0.00 34 1013.5
20260905160807 35 204 16.1 22.5 0.00 0.00 0.00 34 1013.5
20260905160705 35 212 8.0 22.5 0.00 0.00 0.00 34 1013.6
20260905160507 35 215 14.5 22.5 0.00 0.00 0.00 34 1013.5
20260905160306 35 224 20.9 20.9 0.00 0.00 0.00 35 1013.5
20260905160207 35 200 9.7 17.7 0.00 0.00 0.00 34 1013.5
20260905160131 35 176 4.8 16.1 0.00 0.00 0.00 33 1013.5
20260905155907 35 180 11.3 19.3 0.00 0.00 0.00 33 1013.4
20260905155805 35 192 11.3 19.3 0.00 0.00 0.00 34 1013.4
20260905155704 35 207 11.3 19.3 0.00 0.00 0.00 34 1013.4
20260905155505 35 196 11.3 19.3 0.00 0.00 0.00 33 1013.5
20260905155405 35 173 4.8 19.3 0.00 0.00 0.00 33 1013.5
20260905155308 35 190 12.9 19.3 0.00 0.00 0.00 33 1013.5
20260905155205 35 187 14.5 19.3 0.00 0.00 0.00 33 1013.5
20260905154905 35 217 8.0 12.9 0.00 0.00 0.00 34 1013.5
20260905154805 35 179 12.9 12.9 0.00 0.00 0.00 33 1013.5
20260905154707 35 207 4.8 12.9 0.00 0.00 0.00 34 1013.5
20260905154605 35 232 6.4 12.9 0.00 0.00 0.00 34 1013.5
20260905154505 35 202 4.8 12.9 0.00 0.00 0.00 33 1013.5
20260905154407 35 200 9.7 12.9 0.00 0.00 0.00 35 1013.5
20260905154305 35 221 4.8 12.9 0.00 0.00 0.00 33 1013.5
20260905154205 35 223 4.8 12.9 0.00 0.00 0.00 33 1013.5
20260905154005 35 236 4.8 16.1 0.00 0.00 0.00 33 1013.5
20260905153808 35 208 11.3 16.1 0.00 0.00 0.00 33 1013.5
20260905153605 35 256 4.8 19.3 0.00 0.00 0.00 34 1013.5
20260905153509 35 234 8.0 19.3 0.00 0.00 0.00 34 1013.5
20260905153405 35 225 6.4 19.3 0.00 0.00 0.00 34 1013.5
20260905153305 35 219 8.0 19.3 0.00 0.00 0.00 34 1013.5
20260905153106 35 246 4.8 19.3 0.00 0.00 0.00 33 1013.5
20260905153006 35 207 9.7 19.3 0.00 0.00 0.00 33 1013.5
20260905152805 35 220 14.5 19.3 0.00 0.00 0.00 34 1013.5
20260905152706 35 245 16.1 19.3 0.00 0.00 0.00 34 1013.5
20260905152607 35 214 11.3 19.3 0.00 0.00 0.00 35 1013.5
20260905152308 35 236 6.4 19.3 0.00 0.00 0.00 33 1013.4
20260905152105 35 205 9.7 19.3 0.00 0.00 0.00 33 1013.4
20260905152008 35 217 11.3 20.9 0.00 0.00 0.00 33 1013.4
20260905151905 35 213 11.3 20.9 0.00 0.00 0.00 33 1013.4
20260905151707 35 199 12.9 20.9 0.00 0.00 0.00 33 1013.4
20260905151505 35 166 11.3 20.9 0.00 0.00 0.00 33 1013.3
20260905151407 35 211 6.4 20.9 0.00 0.00 0.00 33 1013.4
20260905151305 35 184 12.9 20.9 0.00 0.00 0.00 32 1013.4
20260905151205 35 181 17.7 20.9 0.00 0.00 0.00 32 1013.3
20260905151107 36 208 19.3 20.9 0.00 0.00 0.00 32 1013.4
20260905151006 36 202 9.7 19.3 0.00 0.00 0.00 33 1013.4
20260905150905 36 215 11.3 19.3 0.00 0.00 0.00 33 1013.4
20260905150808 36 255 11.3 19.3 0.00 0.00 0.00 33 1013.4
20260905150705 35 222 11.3 19.3 0.00 0.00 0.00 33 1013.4
20260905150605 35 225 9.7 19.3 0.00 0.00 0.00 32 1013.4
20260905150509 35 233 19.3 19.3 0.00 0.00 0.00 32 1013.4
20260905150405 35 215 4.8 25.7 0.00 0.00 0.00 32 1013.4
20260905150304 35 207 4.8 25.7 0.00 0.00 0.00 32 1013.4
20260905150208 35 198 8.0 25.7 0.00 0.00 0.00 32 1013.3
20260905150105 35 242 6.4 25.7 0.00 0.00 0.00 32 1013.3
20260905150009 35 218 6.4 25.7 0.00 0.00 0.00 33 1013.4
20260905145908 35 182 6.4 25.7 0.00 0.00 0.00 32 1013.3
20260905145805 35 190 16.1 25.7 0.00 0.00 0.00 31 1013.3
20260905145705 35 215 14.5 25.7 0.00 0.00 0.00 32 1013.3
20260905145607 35 186 12.9 25.7 0.00 0.00 0.00 33 1013.3
20260905145405 35 200 16.1 25.7 0.00 0.00 0.00 32 1013.3
20260905145308 35 204 11.3 33.8 0.00 0.00 0.00 32 1013.3
20260905145205 35 207 14.5 33.8 0.00 0.00 0.00 32 1013.3
20260905145104 36 223 16.1 33.8 0.00 0.00 0.00 32 1013.3
20260905145010 36 197 20.9 33.8 0.00 0.00 0.00 32 1013.3
20260905144905 36 212 17.7 33.8 0.00 0.00 0.00 32 1013.3
20260905144805 36 174 14.5 33.8 0.00 0.00 0.00 32 1013.3
20260905144707 36 201 11.3 33.8 0.00 0.00 0.00 32 1013.3
20260905144605 36 232 12.9 33.8 0.00 0.00 0.00 33 1013.3
20260905144505 36 194 6.4 33.8 0.00 0.00 0.00 34 1013.3
20260905144408 36 225 8.0 33.8 0.00 0.00 0.00 32 1013.2
20260905144305 36 223 29.0 30.6 0.00 0.00 0.00 32 1013.3
20260905144107 35 209 11.3 30.6 0.00 0.00 0.00 33 1013.4
20260905144006 35 213 8.0 30.6 0.00 0.00 0.00 34 1013.4
20260905143905 36 192 11.3 30.6 0.00 0.00 0.00 32 1013.4
20260905143807 36 191 16.1 30.6 0.00 0.00 0.00 32 1013.4
20260905143705 36 172 16.1 30.6 0.00 0.00 0.00 32 1013.4
20260905143508 36 136 8.0 16.1 0.00 0.00 0.00 32 1013.4
20260905143405 36 184 4.8 19.3 0.00 0.00 0.00 33 1013.5
20260905143207 36 221 1.6 19.3 0.00 0.00 0.00 32 1013.5
20260905143105 36 243 3.2 19.3 0.00 0.00 0.00 31 1013.5
20260905143005 36 266 6.4 19.3 0.00 0.00 0.00 30 1013.6
20260905142907 36 188 3.2 19.3 0.00 0.00 0.00 30 1013.6
20260905142805 36 190 6.4 19.3 0.00 0.00 0.00 32 1013.6
20260905142705 36 190 8.0 19.3 0.00 0.00 0.00 31 1013.6
20260905142607 36 190 11.3 19.3 0.00 0.00 0.00 31 1013.6
20260905142505 36 202 11.3 19.3 0.00 0.00 0.00 31 1013.7
20260905142405 36 207 17.7 19.3 0.00 0.00 0.00 32 1013.6
20260905142307 36 259 6.4 19.3 0.00 0.00 0.00 32 1013.7
20260905142205 36 206 11.3 19.3 0.00 0.00 0.00 32 1013.7
20260905142105 36 194 12.9 19.3 0.00 0.00 0.00 31 1013.6
20260905142008 36 207 9.7 19.3 0.00 0.00 0.00 34 1013.6
20260905141905 36 235 14.5 19.3 0.00 0.00 0.00 32 1013.7
20260905141805 36 264 6.4 19.3 0.00 0.00 0.00 32 1013.7
20260905141708 36 223 12.9 19.3 0.00 0.00 0.00 33 1013.7
20260905141605 36 240 9.7 19.3 0.00 0.00 0.00 31 1013.7
20260905141504 36 250 12.9 19.3 0.00 0.00 0.00 32 1013.6
20260905141305 36 161 9.7 20.9 0.00 0.00 0.00 31 1013.7
20260905141205 36 199 11.3 20.9 0.00 0.00 0.00 31 1013.7
20260905141107 36 206 11.3 14.5 0.00 0.00 0.00 31 1013.7
20260905141005 36 103 3.2 11.3 0.00 0.00 0.00 31 1013.7
20260905140808 36 130 6.4 16.1 0.00 0.00 0.00 33 1013.7
20260905140705 36 130 8.0 17.7 0.00 0.00 0.00 31 1013.7
20260905140605 36 194 4.8 17.7 0.00 0.00 0.00 32 1013.7
20260905140405 36 178 1.6 17.7 0.00 0.00 0.00 32 1013.7
20260905140306 36 245 3.2 17.7 0.00 0.00 0.00 30 1013.7
20260905140208 36 304 1.6 17.7 0.00 0.00 0.00 30 1013.7
20260905140119 36 338 3.2 17.7 0.00 0.00 0.00 30 1013.8
20260905140008 36 229 0.0 17.7 0.00 0.00 0.00 30 1013.8
20260905135907 36 223 11.3 17.7 0.00 0.00 0.00 30 1013.8
20260905135805 36 232 11.3 17.7 0.00 0.00 0.00 32 1013.8
20260905135705 36 203 11.3 17.7 0.00 0.00 0.00 32 1013.8
20260905135607 36 201 4.8 17.7 0.00 0.00 0.00 32 1013.8
20260905135505 36 177 8.0 17.7 0.00 0.00 0.00 32 1013.8
20260905135405 36 190 11.3 17.7 0.00 0.00 0.00 32 1013.8
20260905135309 36 237 9.7 19.3 0.00 0.00 0.00 31 1013.8
20260905135205 36 207 11.3 19.3 0.00 0.00 0.00 32 1013.8
20260905135104 36 221 9.7 19.3 0.00 0.00 0.00 32 1013.9
20260905134905 36 278 11.3 12.9 0.00 0.00 0.00 32 1013.9
20260905134805 36 165 4.8 11.3 0.00 0.00 0.00 31 1013.8
20260905134707 36 284 4.8 12.9 0.00 0.00 0.00 32 1013.8
20260905134505 36 284 4.8 16.1 0.00 0.00 0.00 31 1013.9
20260905134407 35 289 9.7 19.3 0.00 0.00 0.00 32 1013.9
20260905134305 35 326 8.0 20.9 0.00 0.00 0.00 32 1013.8
20260905134204 35 350 6.4 20.9 0.00 0.00 0.00 31 1013.8
20260905134108 35 350 3.2 20.9 0.00 0.00 0.00 31 1013.8
20260905134005 35 324 8.0 20.9 0.00 0.00 0.00 30 1013.9
20260905133905 36 220 1.6 20.9 0.00 0.00 0.00 31 1013.9
20260905133807 36 191 6.4 20.9 0.00 0.00 0.00 30 1013.9
20260905133705 36 226 12.9 20.9 0.00 0.00 0.00 30 1014.0
20260905133605 36 251 6.4 20.9 0.00 0.00 0.00 32 1013.9
20260905133508 36 219 12.9 20.9 0.00 0.00 0.00 31 1013.9
20260905133404 36 214 17.7 20.9 0.00 0.00 0.00 32 1013.9
20260905133306 36 240 17.7 20.9 0.00 0.00 0.00 31 1014.0
20260905133207 36 219 11.3 20.9 0.00 0.00 0.00 32 1014.0
20260905133105 36 211 9.7 19.3 0.00 0.00 0.00 33 1014.0
20260905133005 36 217 16.1 17.7 0.00 0.00 0.00 32 1014.0
20260905132907 36 206 9.7 12.9 0.00 0.00 0.00 31 1014.0
20260905132805 36 279 6.4 12.9 0.00 0.00 0.00 31 1014.0
20260905132705 36 26 6.4 12.9 0.00 0.00 0.00 30 1014.0
20260905132608 36 355 4.8 12.9 0.00 0.00 0.00 32 1014.0
20260905132505 36 308 4.8 17.7 0.00 0.00 0.00 31 1014.1
20260905132406 36 282 3.2 20.9 0.00 0.00 0.00 30 1014.1
20260905132307 36 229 0.0 20.9 0.00 0.00 0.00 30 1014.1
20260905132205 36 229 1.6 20.9 0.00 0.00 0.00 30 1014.1
20260905132105 36 257 6.4 20.9 0.00 0.00 0.00 31 1014.1
20260905131905 36 201 8.0 20.9 0.00 0.00 0.00 30 1014.1
20260905131805 36 268 6.4 20.9 0.00 0.00 0.00 31 1014.1
20260905131708 36 227 11.3 20.9 0.00 0.00 0.00 32 1014.1
20260905131605 36 221 8.0 20.9 0.00 0.00 0.00 31 1014.1
20260905131505 36 225 12.9 20.9 0.00 0.00 0.00 31 1014.1
20260905131407 36 205 11.3 17.7 0.00 0.00 0.00 32 1014.1
20260905131305 35 267 9.7 17.7 0.00 0.00 0.00 31 1014.1
20260905131205 36 283 11.3 17.7 0.00 0.00 0.00 30 1014.1
20260905131107 36 254 16.1 17.7 0.00 0.00 0.00 30 1014.1
20260905131006 36 267 8.0 17.7 0.00 0.00 0.00 31 1014.2
20260905130905 36 246 17.7 17.7 0.00 0.00 0.00 31 1014.2
20260905130705 36 241 14.5 17.7 0.00 0.00 0.00 30 1014.1
20260905130605 36 263 11.3 17.7 0.00 0.00 0.00 32 1014.1
20260905130508 36 208 14.5 17.7 0.00 0.00 0.00 30 1014.2
20260905130405 36 271 12.9 29.0 0.00 0.00 0.00 30 1014.2
20260905130304 36 254 9.7 29.0 0.00 0.00 0.00 31 1014.2
20260905130208 36 214 12.9 29.0 0.00 0.00 0.00 32 1014.2
20260905130105 35 207 11.3 29.0 0.00 0.00 0.00 31 1014.2
20260905130008 35 220 17.7 29.0 0.00 0.00 0.00 31 1014.2
20260905125907 35 222 9.7 29.0 0.00 0.00 0.00 30 1014.3
20260905125805 35 182 4.8 29.0 0.00 0.00 0.00 30 1014.2
20260905125705 35 196 3.2 29.0 0.00 0.00 0.00 31 1014.3
20260905125607 35 205 6.4 29.0 0.00 0.00 0.00 30 1014.3
20260905125505 35 217 11.3 29.0 0.00 0.00 0.00 30 1014.3
20260905125405 35 221 29.0 29.0 0.00 0.00 0.00 31 1014.3
20260905125206 35 222 11.3 27.4 0.00 0.00 0.00 31 1014.4
20260905125105 35 213 14.5 27.4 0.00 0.00 0.00 32 1014.4
20260905124905 35 194 9.7 27.4 0.00 0.00 0.00 30 1014.4
20260905124805 35 196 17.7 25.7 0.00 0.00 0.00 31 1014.4
20260905124706 35 188 12.9 20.9 0.00 0.00 0.00 31 1014.4
20260905124505 35 240 9.7 20.9 0.00 0.00 0.00 31 1014.4
20260905124407 35 261 8.0 20.9 0.00 0.00 0.00 30 1014.4
20260905124305 35 229 20.9 20.9 0.00 0.00 0.00 32 1014.4
20260905124205 35 248 12.9 20.9 0.00 0.00 0.00 31 1014.3
20260905124107 35 186 11.3 20.9 0.00 0.00 0.00 32 1014.4
20260905124006 35 222 12.9 20.9 0.00 0.00 0.00 30 1014.4
20260905123905 35 186 11.3 20.9 0.00 0.00 0.00 30 1014.4
20260905123807 35 209 14.5 20.9 0.00 0.00 0.00 30 1014.4
20260905123705 35 185 12.9 17.7 0.00 0.00 0.00 30 1014.4
20260905123405 35 234 12.9 24.1 0.00 0.00 0.00 32 1014.4
20260905123304 35 259 9.7 25.7 0.00 0.00 0.00 31 1014.4
20260905123105 35 286 11.3 25.7 0.00 0.00 0.00 31 1014.4
20260905123006 35 275 9.7 25.7 0.00 0.00 0.00 30 1014.5
20260905122907 35 199 1.6 25.7 0.00 0.00 0.00 31 1014.5
20260905122805 35 242 9.7 25.7 0.00 0.00 0.00 31 1014.5
20260905122705 35 224 11.3 27.4 0.00 0.00 0.00 30 1014.6
20260905122607 35 238 17.7 27.4 0.00 0.00 0.00 31 1014.5
20260905122505 35 224 22.5 27.4 0.00 0.00 0.00 31 1014.5
20260905122405 35 226 16.1 27.4 0.00 0.00 0.00 31 1014.5
20260905122307 35 232 17.7 27.4 0.00 0.00 0.00 31 1014.5
20260905122008 35 223 8.0 27.4 0.00 0.00 0.00 31 1014.5
20260905121905 35 242 14.5 27.4 0.00 0.00 0.00 30 1014.5
20260905121805 35 232 11.3 27.4 0.00 0.00 0.00 31 1014.5
20260905121708 35 239 9.7 22.5 0.00 0.00 0.00 30 1014.5
20260905121605 35 198 9.7 22.5 0.00 0.00 0.00 30 1014.5
20260905121505 35 228 9.7 22.5 0.00 0.00 0.00 30 1014.5
20260905121407 35 221 4.8 22.5 0.00 0.00 0.00 29 1014.5
20260905121305 35 248 0.0 22.5 0.00 0.00 0.00 29 1014.5
20260905121205 35 251 9.7 22.5 0.00 0.00 0.00 32 1014.5
20260905121005 35 200 6.4 22.5 0.00 0.00 0.00 31 1014.5
20260905120807 35 148 4.8 17.7 0.00 0.00 0.00 31 1014.6
20260905120705 35 194 9.7 17.7 0.00 0.00 0.00 32 1014.6
20260905120604 35 214 11.3 14.5 0.00 0.00 0.00 33 1014.6
20260905120508 35 204 3.2 9.7 0.00 0.00 0.00 32 1014.6
20260905120405 35 143 1.6 9.7 0.00 0.00 0.00 31 1014.6
20260905120304 35 47 0.0 11.3 0.00 0.00 0.00 32 1014.7
20260905120119 35 325 6.4 11.3 0.00 0.00 0.00 34 1014.8
20260905120008 35 332 8.0 11.3 0.00 0.00 0.00 34 1014.7
20260905115907 35 326 8.0 11.3 0.00 0.00 0.00 33 1014.8
20260905115805 35 327 3.2 11.3 0.00 0.00 0.00 33 1014.7
20260905115704 35 30 3.2 11.3 0.00 0.00 0.00 32 1014.6
20260905115607 35 30 4.8 11.3 0.00 0.00 0.00 32 1014.7
20260905115506 35 315 1.6 14.5 0.00 0.00 0.00 32 1014.8
20260905115307 35 343 8.0 14.5 0.00 0.00 0.00 33 1014.7
20260905115205 35 330 6.4 14.5 0.00 0.00 0.00 32 1014.8
20260905115104 35 57 3.2 14.5 0.00 0.00 0.00 31 1014.7
20260905114905 35 5 0.0 14.5 0.00 0.00 0.00 32 1014.8
20260905114707 35 348 3.2 14.5 0.00 0.00 0.00 33 1014.9
20260905114505 35 36 14.5 14.5 0.00 0.00 0.00 31 1014.9
20260905114408 35 5 1.6 12.9 0.00 0.00 0.00 33 1014.8
20260905114206 35 5 3.2 12.9 0.00 0.00 0.00 34 1014.9
20260905114107 35 317 8.0 12.9 0.00 0.00 0.00 34 1014.9
20260905114004 35 333 9.7 12.9 0.00 0.00 0.00 33 1014.9
20260905113807 35 339 6.4 12.9 0.00 0.00 0.00 34 1014.9
20260905113705 35 329 4.8 14.5 0.00 0.00 0.00 32 1015.0
20260905113507 35 304 3.2 19.3 0.00 0.00 0.00 31 1015.0
20260905113405 35 287 6.4 19.3 0.00 0.00 0.00 32 1015.0
20260905113305 35 346 4.8 19.3 0.00 0.00 0.00 33 1015.0
20260905113207 35 336 1.6 19.3 0.00 0.00 0.00 33 1015.0
20260905113105 35 331 8.0 19.3 0.00 0.00 0.00 33 1015.0
20260905113006 35 336 11.3 19.3 0.00 0.00 0.00 33 1015.0
20260905112907 35 40 4.8 19.3 0.00 0.00 0.00 34 1015.0
20260905112805 35 340 9.7 19.3 0.00 0.00 0.00 32 1015.0
20260905112705 35 344 6.4 19.3 0.00 0.00 0.00 34 1015.0
20260905112607 35 321 9.7 19.3 0.00 0.00 0.00 34 1015.0
20260905112405 35 340 8.0 14.5 0.00 0.00 0.00 34 1015.0
20260905112307 35 342 4.8 16.1 0.00 0.00 0.00 33 1015.0
20260905112205 35 299 4.8 16.1 0.00 0.00 0.00 32 1015.0
20260905112105 35 30 8.0 19.3 0.00 0.00 0.00 31 1015.0
20260905112008 35 22 6.4 19.3 0.00 0.00 0.00 33 1015.0
20260905111905 35 40 8.0 19.3 0.00 0.00 0.00 33 1014.9
20260905111805 35 38 6.4 19.3 0.00 0.00 0.00 32 1014.9
20260905111707 35 327 8.0 19.3 0.00 0.00 0.00 31 1014.9
20260905111605 35 335 3.2 20.9 0.00 0.00 0.00 34 1015.0
20260905111505 35 350 14.5 20.9 0.00 0.00 0.00 34 1014.9
20260905111407 35 21 11.3 20.9 0.00 0.00 0.00 34 1015.0
20260905111205 35 47 11.3 20.9 0.00 0.00 0.00 35 1015.0
20260905111107 35 355 12.9 20.9 0.00 0.00 0.00 33 1015.0
20260905111006 35 333 9.7 20.9 0.00 0.00 0.00 34 1015.0
20260905110904 35 337 16.1 20.9 0.00 0.00 0.00 33 1015.1
20260905110808 35 350 12.9 20.9 0.00 0.00 0.00 33 1015.0
20260905110704 35 36 8.0 20.9 0.00 0.00 0.00 34 1015.0
20260905110604 34 347 11.3 20.9 0.00 0.00 0.00 34 1015.0
20260905110508 34 338 4.8 19.3 0.00 0.00 0.00 33 1015.0
20260905110405 34 344 16.1 19.3 0.00 0.00 0.00 35 1015.0
20260905110207 34 26 9.7 19.3 0.00 0.00 0.00 34 1015.1
20260905110105 34 342 11.3 19.3 0.00 0.00 0.00 34 1015.1
20260905110007 34 348 12.9 19.3 0.00 0.00 0.00 34 1015.0
20260905105907 34 348 11.3 19.3 0.00 0.00 0.00 33 1015.0
20260905105804 34 44 12.9 19.3 0.00 0.00 0.00 33 1015.0
20260905105606 35 44 11.3 17.7 0.00 0.00 0.00 31 1015.1
20260905105404 35 346 9.7 17.7 0.00 0.00 0.00 33 1015.2
20260905105307 35 338 11.3 17.7 0.00 0.00 0.00 36 1015.2
20260905105103 34 360 8.0 17.7 0.00 0.00 0.00 34 1015.1
20260905105008 34 334 11.3 17.7 0.00 0.00 0.00 36 1015.1
20260905104905 34 299 12.9 17.7 0.00 0.00 0.00 35 1015.2
20260905104804 34 343 12.9 17.7 0.00 0.00 0.00 35 1015.1
20260905104708 34 350 11.3 17.7 0.00 0.00 0.00 33 1015.1
20260905104606 34 360 6.4 16.1 0.00 0.00 0.00 34 1015.1
20260905104504 34 331 8.0 16.1 0.00 0.00 0.00 35 1015.1
20260905104205 34 344 9.7 16.1 0.00 0.00 0.00 35 1015.1
20260905104107 34 343 8.0 17.7 0.00 0.00 0.00 36 1015.1
20260905104008 34 347 3.2 17.7 0.00 0.00 0.00 33 1015.1
20260905103905 34 321 8.0 17.7 0.00 0.00 0.00 34 1015.1
20260905103807 33 308 4.8 17.7 0.00 0.00 0.00 35 1015.1
20260905103704 33 33 9.7 17.7 0.00 0.00 0.00 34 1015.1
20260905103605 33 351 8.0 17.7 0.00 0.00 0.00 35 1015.1
20260905103508 33 320 9.7 17.7 0.00 0.00 0.00 34 1015.1
20260905103405 34 316 9.7 19.3 0.00 0.00 0.00 34 1015.1
20260905103305 34 333 1.6 19.3 0.00 0.00 0.00 34 1015.1
20260905103207 34 309 8.0 19.3 0.00 0.00 0.00 34 1015.2
20260905102907 33 321 16.1 19.3 0.00 0.00 0.00 34 1015.2
20260905102506 33 355 6.4 19.3 0.00 0.00 0.00 33 1015.2
20260905102405 33 5 16.1 19.3 0.00 0.00 0.00 33 1015.2
20260905102308 33 332 11.3 16.1 0.00 0.00 0.00 33 1015.3
20260905102206 33 330 6.4 16.1 0.00 0.00 0.00 34 1015.3
20260905102105 33 345 6.4 16.1 0.00 0.00 0.00 35 1015.3
20260905102009 33 348 11.3 16.1 0.00 0.00 0.00 35 1015.3
20260905101904 33 286 8.0 16.1 0.00 0.00 0.00 36 1015.3
20260905101604 33 333 8.0 16.1 0.00 0.00 0.00 36 1015.3
20260905101505 33 5 11.3 16.1 0.00 0.00 0.00 36 1015.3
20260905101408 33 32 6.4 16.1 0.00 0.00 0.00 33 1015.3
20260905101305 33 331 3.2 16.1 0.00 0.00 0.00 35 1015.3
20260905101107 33 348 8.0 16.1 0.00 0.00 0.00 33 1015.3
20260905101005 33 262 4.8 16.1 0.00 0.00 0.00 33 1015.3
20260905100904 33 259 3.2 16.1 0.00 0.00 0.00 33 1015.3
20260905100807 33 283 8.0 16.1 0.00 0.00 0.00 33 1015.3
20260905100705 33 263 8.0 16.1 0.00 0.00 0.00 34 1015.3
20260905100507 33 198 3.2 19.3 0.00 0.00 0.00 34 1015.3
20260905100404 33 29 9.7 19.3 0.00 0.00 0.00 32 1015.4
20260905100305 33 19 8.0 19.3 0.00 0.00 0.00 33 1015.4
20260905100118 33 311 4.8 19.3 0.00 0.00 0.00 34 1015.4
20260905100008 33 308 8.0 19.3 0.00 0.00 0.00 34 1015.4
20260905095907 33 339 9.7 19.3 0.00 0.00 0.00 35 1015.4
20260905095805 33 340 6.4 19.3 0.00 0.00 0.00 35 1015.4
20260905095705 33 322 9.7 19.3 0.00 0.00 0.00 35 1015.5
20260905095607 33 328 14.5 19.3 0.00 0.00 0.00 37 1015.5
20260905095505 33 313 16.1 19.3 0.00 0.00 0.00 37 1015.4
20260905095405 33 326 12.9 16.1 0.00 0.00 0.00 35 1015.4
20260905095307 33 329 4.8 16.1 0.00 0.00 0.00 34 1015.4
20260905095205 33 269 6.4 16.1 0.00 0.00 0.00 35 1015.4
20260905095007 33 296 3.2 16.1 0.00 0.00 0.00 33 1015.5
20260905094904 33 339 6.4 16.1 0.00 0.00 0.00 33 1015.4
20260905094804 33 279 4.8 16.1 0.00 0.00 0.00 34 1015.4
20260905094708 33 348 11.3 16.1 0.00 0.00 0.00 36 1015.4
20260905094604 33 317 8.0 14.5 0.00 0.00 0.00 33 1015.4
20260905094505 33 303 4.8 14.5 0.00 0.00 0.00 34 1015.5
20260905094408 33 263 3.2 17.7 0.00 0.00 0.00 34 1015.4
20260905094304 33 312 3.2 17.7 0.00 0.00 0.00 35 1015.4
20260905094206 33 344 9.7 17.7 0.00 0.00 0.00 34 1015.5
20260905094107 33 311 8.0 17.7 0.00 0.00 0.00 35 1015.4
20260905094006 33 295 6.4 17.7 0.00 0.00 0.00 36 1015.5
20260905093905 33 303 11.3 17.7 0.00 0.00 0.00 35 1015.5
20260905093808 33 294 9.7 17.7 0.00 0.00 0.00 34 1015.4
20260905093706 32 279 9.7 17.7 0.00 0.00 0.00 36 1015.5
20260905093604 32 331 8.0 17.7 0.00 0.00 0.00 35 1015.4
20260905093305 32 314 3.2 17.7 0.00 0.00 0.00 35 1015.4
20260905093208 32 277 9.7 17.7 0.00 0.00 0.00 35 1015.4
20260905092907 32 338 12.9 16.1 0.00 0.00 0.00 35 1015.5
20260905092805 32 311 8.0 16.1 0.00 0.00 0.00 36 1015.5
20260905092705 32 313 11.3 14.5 0.00 0.00 0.00 35 1015.4
20260905092607 32 298 4.8 14.5 0.00 0.00 0.00 34 1015.4
20260905092505 32 288 4.8 14.5 0.00 0.00 0.00 34 1015.4
20260905092405 32 308 4.8 14.5 0.00 0.00 0.00 35 1015.4
20260905092307 32 323 8.0 17.7 0.00 0.00 0.00 35 1015.5
20260905092105 33 345 11.3 17.7 0.00 0.00 0.00 34 1015.5
20260905092008 33 288 3.2 17.7 0.00 0.00 0.00 35 1015.5
20260905091905 33 277 8.0 17.7 0.00 0.00 0.00 35 1015.5
20260905091707 33 319 9.7 17.7 0.00 0.00 0.00 36 1015.4
20260905091604 33 355 11.3 17.7 0.00 0.00 0.00 36 1015.4
20260905091505 32 330 8.0 17.7 0.00 0.00 0.00 38 1015.4
20260905091407 32 319 14.5 17.7 0.00 0.00 0.00 36 1015.4
20260905091205 32 342 6.4 19.3 0.00 0.00 0.00 36 1015.4
20260905091107 32 329 8.0 19.3 0.00 0.00 0.00 36 1015.4
20260905091005 32 360 9.7 19.3 0.00 0.00 0.00 35 1015.4
20260905090904 32 349 8.0 19.3 0.00 0.00 0.00 36 1015.4
20260905090807 32 338 9.7 19.3 0.00 0.00 0.00 35 1015.4
20260905090705 32 320 8.0 19.3 0.00 0.00 0.00 37 1015.4
20260905090606 32 331 14.5 19.3 0.00 0.00 0.00 37 1015.4
20260905090508 32 329 12.9 19.3 0.00 0.00 0.00 37 1015.4
20260905090404 32 322 12.9 19.3 0.00 0.00 0.00 37 1015.4
20260905090305 32 332 14.5 19.3 0.00 0.00 0.00 36 1015.4
20260905090208 32 306 16.1 17.7 0.00 0.00 0.00 36 1015.4
20260905090105 32 312 9.7 17.7 0.00 0.00 0.00 37 1015.4
20260905085907 32 5 3.2 14.5 0.00 0.00 0.00 37 1015.4
20260905085804 32 336 14.5 14.5 0.00 0.00 0.00 37 1015.4
20260905085704 32 75 6.4 14.5 0.00 0.00 0.00 38 1015.4
20260905085607 32 342 12.9 14.5 0.00 0.00 0.00 37 1015.4
20260905085505 32 351 9.7 14.5 0.00 0.00 0.00 38 1015.4
20260905085405 32 5 6.4 14.5 0.00 0.00 0.00 37 1015.3
20260905085308 32 342 9.7 14.5 0.00 0.00 0.00 38 1015.3
20260905085205 32 341 8.0 14.5 0.00 0.00 0.00 37 1015.3
20260905085105 31 300 6.4 14.5 0.00 0.00 0.00 40 1015.3
20260905085008 31 323 11.3 14.5 0.00 0.00 0.00 38 1015.3
20260905084905 31 348 12.9 14.5 0.00 0.00 0.00 38 1015.2
20260905084806 31 329 11.3 14.5 0.00 0.00 0.00 38 1015.2
20260905084707 31 348 6.4 14.5 0.00 0.00 0.00 38 1015.3
20260905084605 31 13 8.0 14.5 0.00 0.00 0.00 38 1015.2
20260905084505 31 333 8.0 14.5 0.00 0.00 0.00 39 1015.3
20260905084408 31 346 11.3 12.9 0.00 0.00 0.00 40 1015.2
20260905084306 31 28 6.4 12.9 0.00 0.00 0.00 40 1015.3
20260905084206 31 317 11.3 12.9 0.00 0.00 0.00 39 1015.3
20260905084107 31 323 12.9 12.9 0.00 0.00 0.00 38 1015.3
20260905084005 31 301 8.0 12.9 0.00 0.00 0.00 37 1015.2
20260905083905 31 275 6.4 12.9 0.00 0.00 0.00 38 1015.2
20260905083807 31 300 9.7 12.9 0.00 0.00 0.00 39 1015.2
20260905083705 31 298 8.0 12.9 0.00 0.00 0.00 39 1015.2
20260905083604 31 315 4.8 12.9 0.00 0.00 0.00 39 1015.1
20260905083508 31 323 3.2 16.1 0.00 0.00 0.00 38 1015.0
20260905083405 31 292 3.2 16.1 0.00 0.00 0.00 40 1015.1
20260905083304 31 329 4.8 16.1 0.00 0.00 0.00 41 1015.0
20260905083105 31 324 4.8 16.1 0.00 0.00 0.00 41 1015.1
20260905083007 30 207 6.4 16.1 0.00 0.00 0.00 43 1015.1
20260905082907 30 269 4.8 16.1 0.00 0.00 0.00 41 1015.0
20260905082805 30 280 4.8 16.1 0.00 0.00 0.00 41 1015.0
20260905082704 30 274 3.2 16.1 0.00 0.00 0.00 40 1015.1
20260905082505 30 290 14.5 16.1 0.00 0.00 0.00 41 1015.0
20260905082404 30 256 8.0 12.9 0.00 0.00 0.00 42 1015.0
20260905082205 30 286 8.0 12.9 0.00 0.00 0.00 41 1015.0
20260905082008 30 298 11.3 12.9 0.00 0.00 0.00 42 1015.0
20260905081905 30 223 6.4 12.9 0.00 0.00 0.00 44 1015.0
20260905081805 30 319 4.8 12.9 0.00 0.00 0.00 43 1015.0
20260905081707 30 299 6.4 12.9 0.00 0.00 0.00 43 1015.0
20260905081604 30 279 4.8 12.9 0.00 0.00 0.00 44 1015.0
20260905081504 30 316 9.7 12.9 0.00 0.00 0.00 43 1015.0
20260905081407 30 276 9.7 12.9 0.00 0.00 0.00 44 1014.9
20260905081305 30 331 9.7 12.9 0.00 0.00 0.00 43 1014.9
20260905081205 30 306 8.0 12.9 0.00 0.00 0.00 46 1014.9
20260905081108 30 324 8.0 11.3 0.00 0.00 0.00 46 1014.9
20260905081005 30 329 6.4 11.3 0.00 0.00 0.00 45 1015.0
20260905080905 30 306 3.2 11.3 0.00 0.00 0.00 45 1015.0
20260905080807 29 355 6.4 11.3 0.00 0.00 0.00 46 1015.0
20260905080705 29 330 6.4 12.9 0.00 0.00 0.00 46 1015.0
20260905080604 29 320 8.0 12.9 0.00 0.00 0.00 47 1014.9